LiveATC.Net - Listen to live air traffic control over the Internet!
Airport/ARTCC Code
Frequency Search
(e.g., 124.400, 128.75)
Site-wide search
 


Browse Feeds
Top 50 Feeds
Coverage Map
Bad Weather Areas

LiveATC FAQ
Offer LiveATC feed
Contact LiveATC.net
Press Inquiries

LiveATC on iPhone
LiveATC on Android

Windows Phone
Windows 8/10

LiveATC Mobile
(Mobile browser)

ATC Audio Archives
Interesting Recordings

LiveATC Forums

Home Page
About LiveATC.net
Make a Donation
Terms of Use
Privacy Policy

Canadian Air Freqs

AIRMETs/SIGMETs

FAA Airport Status
Nat'l Airspace Status
Arrival Demand Charts


Server Software By:
Icecast.org
Liquidsoap

Select an area of interest:
U.S. Feeds: Class B Airports | Class C Airports | Class D/Other Airports | ARTCC (Centers)
International Feeds: Canada | Europe | Oceania | Asia | South America | North/Central America | Africa
Misc Feeds: HF Feeds
Search by ICAO/IATA airport code:   (e.g., kbos, kjfk, lax, eham, etc.)


Currently Available Live Feeds: 2661
Status Updated: Tue Oct 27 2020 09:59:04 UTC


NOTICE

Unauthorized use prohibited. See LiveATC.net Terms of Service

Europe Airport Feeds

 

EFKU Tower/Approach (Archives)
Siilinjarvi, Finland

Feed Status: UP
Listen in your browser - HTML5 player(in browser, HTML5)
Click here to listen with your own player(launches your MP3 player)

EFKU 270920Z 17010KT 9000 -RA OVC005 10/09 Q1005

EFKU Flight Activity (Flightaware)

Listeners: 1 out of 925 total

Kuopio Approach: 130.600
Kuopio Tower: 120.150

Dutch Mil Radar (Archives)
Amsterdam, Netherlands

Feed Status: UP
Listen in your browser - HTML5 player(in browser, HTML5)
Click here to listen with your own player(launches your MP3 player)

EHLE 270925Z AUTO 20014KT 170V240 9999 OVC010 10/08 Q1002 BECMG SCT020

EHLE Flight Activity (Flightaware)

Listeners: 1 out of 925 total

Dutch Mil Flight Info: 264.325
Dutch Mil Radar: 128.355
Dutch Mil Radar: 132.350

EHAA Radar ARTIP (Archives)
Amsterdam, Netherlands

Feed Status: UP
Listen in your browser - HTML5 player(in browser, HTML5)
Click here to listen with your own player(launches your MP3 player)

EHAM 270925Z 19015KT 160V220 9999 FEW011 10/08 Q1002 NOSIG

EHAM Flight Activity (Flightaware)

Listeners: 0 out of 925 total

EHAA Radar Sector 1 ARTIP: 120.550

EHAA Radar East Inbound (Archives)
Amsterdam, Netherlands

Feed Status: UP
Listen in your browser - HTML5 player(in browser, HTML5)
Click here to listen with your own player(launches your MP3 player)

EHAM 270925Z 19015KT 160V220 9999 FEW011 10/08 Q1002 NOSIG

EHAM Flight Activity (Flightaware)

Listeners: 0 out of 925 total

EHAA Radar Sector 2 East Inbound: 128.575

EHAA Radar East Outbound (Archives)
Amsterdam, Netherlands

Feed Status: UP
Listen in your browser - HTML5 player(in browser, HTML5)
Click here to listen with your own player(launches your MP3 player)

EHAM 270925Z 19015KT 160V220 9999 FEW011 10/08 Q1002 NOSIG

EHAM Flight Activity (Flightaware)

Listeners: 1 out of 925 total

EHAA Radar Sector 2 East Outbound: 124.875

EHAA Radar North (Archives)
Amsterdam, Netherlands

Feed Status: UP
Listen in your browser - HTML5 player(in browser, HTML5)
Click here to listen with your own player(launches your MP3 player)

EHAM 270925Z 19015KT 160V220 9999 FEW011 10/08 Q1002 NOSIG

EHAM Flight Activity (Flightaware)

Listeners: 1 out of 925 total

EHAA Radar Sector 1 North: 134.375

EHAA Radar Northwest (Archives)
Amsterdam, Netherlands

Feed Status: UP
Listen in your browser - HTML5 player(in browser, HTML5)
Click here to listen with your own player(launches your MP3 player)

EHAM 270925Z 19015KT 160V220 9999 FEW011 10/08 Q1002 NOSIG

EHAM Flight Activity (Flightaware)

Listeners: 0 out of 925 total

EHAA Radar Sector 5 Northwest: 123.7000

EHAA Radar RIVER (Archives)
Amsterdam, Netherlands

Feed Status: UP
Listen in your browser - HTML5 player(in browser, HTML5)
Click here to listen with your own player(launches your MP3 player)

EHAM 270925Z 19015KT 160V220 9999 FEW011 10/08 Q1002 NOSIG

EHAM Flight Activity (Flightaware)

Listeners: 0 out of 925 total

EHAA Radar Sector 3 RIVER: 130.950

EHAA Radar South (Archives)
Amsterdam, Netherlands

Feed Status: UP
Listen in your browser - HTML5 player(in browser, HTML5)
Click here to listen with your own player(launches your MP3 player)

EHAM 270925Z 19015KT 160V220 9999 FEW011 10/08 Q1002 NOSIG

EHAM Flight Activity (Flightaware)

Listeners: 4 out of 925 total

EHAA Radar Sector 3 South: 123.850

EHAA Radar South (Backup) (Archives)
Amsterdam, Netherlands

Feed Status: UP
Listen in your browser - HTML5 player(in browser, HTML5)
Click here to listen with your own player(launches your MP3 player)

EHAM 270925Z 19015KT 160V220 9999 FEW011 10/08 Q1002 NOSIG

EHAM Flight Activity (Flightaware)

Listeners: 0 out of 925 total

EHAA Radar Sector 3 South Backup : 127.775

EHAA Radar Southwest (Archives)
Amsterdam, Netherlands

Feed Status: UP
Listen in your browser - HTML5 player(in browser, HTML5)
Click here to listen with your own player(launches your MP3 player)

EHAM 270925Z 19015KT 160V220 9999 FEW011 10/08 Q1002 NOSIG

EHAM Flight Activity (Flightaware)

Listeners: 0 out of 925 total

EHAA Radar Sector 4 Southwest: 125.750

EHAA Radar SUGOL (Archives)
Amsterdam, Netherlands

Feed Status: UP
Listen in your browser - HTML5 player(in browser, HTML5)
Click here to listen with your own player(launches your MP3 player)

EHAM 270925Z 19015KT 160V220 9999 FEW011 10/08 Q1002 NOSIG

EHAM Flight Activity (Flightaware)

Listeners: 0 out of 925 total

EHAA Radar Sector 5 SUGOL: 118.800

EHAM Airside Ops Mgr (AOM) (Archives)
Amsterdam, Netherlands

Feed Status: UP
Listen in your browser - HTML5 player(in browser, HTML5)
Click here to listen with your own player(launches your MP3 player)

EHAM 270925Z 19015KT 160V220 9999 FEW011 10/08 Q1002 NOSIG

EHAM Flight Activity (Flightaware)

Listeners: 0 out of 925 total

Schiphol Airside Operations Manager: 130.475

EHAM App/Dep Backup (Archives)
Amsterdam, Netherlands

Feed Status: UP
Listen in your browser - HTML5 player(in browser, HTML5)
Click here to listen with your own player(launches your MP3 player)

EHAM 270925Z 19015KT 160V220 9999 FEW011 10/08 Q1002 NOSIG

EHAM Flight Activity (Flightaware)

Listeners: 0 out of 925 total

Schiphol App/Dep Backup: 118.075

EHAM App/Dep TMA East (Archives)
Amsterdam, Netherlands

Feed Status: UP
Listen in your browser - HTML5 player(in browser, HTML5)
Click here to listen with your own player(launches your MP3 player)

EHAM 270925Z 19015KT 160V220 9999 FEW011 10/08 Q1002 NOSIG

EHAM Flight Activity (Flightaware)

Listeners: 5 out of 925 total

Amsterdam Approach/Departure TMA East: 119.055

EHAM App/Dep TMA West (Archives)
Amsterdam, Netherlands

Feed Status: UP
Listen in your browser - HTML5 player(in browser, HTML5)
Click here to listen with your own player(launches your MP3 player)

EHAM 270925Z 19015KT 160V220 9999 FEW011 10/08 Q1002 NOSIG

EHAM Flight Activity (Flightaware)

Listeners: 1 out of 925 total

Amsterdam Approach/Departure TMA West: 121.200

EHAM Apron (North) (Archives)
Amsterdam, Netherlands

Feed Status: UP
Listen in your browser - HTML5 player(in browser, HTML5)
Click here to listen with your own player(launches your MP3 player)

EHAM 270925Z 19015KT 160V220 9999 FEW011 10/08 Q1002 NOSIG

EHAM Flight Activity (Flightaware)

Listeners: 0 out of 925 total

Schiphol Apron (North): 121.880

EHAM Apron (South) (Archives)
Amsterdam, Netherlands

Feed Status: UP
Listen in your browser - HTML5 player(in browser, HTML5)
Click here to listen with your own player(launches your MP3 player)

EHAM 270925Z 19015KT 160V220 9999 FEW011 10/08 Q1002 NOSIG

EHAM Flight Activity (Flightaware)

Listeners: 0 out of 925 total

Schiphol Apron (South): 121.780

EHAM Arrival (Primary) (Archives)
Amsterdam, Netherlands

Feed Status: UP
Listen in your browser - HTML5 player(in browser, HTML5)
Click here to listen with your own player(launches your MP3 player)

EHAM 270925Z 19015KT 160V220 9999 FEW011 10/08 Q1002 NOSIG

EHAM Flight Activity (Flightaware)

Listeners: 2 out of 925 total

Amsterdam Arrival : 118.400

EHAM Arrival (Secondary) (Archives)
Amsterdam, Netherlands

Feed Status: UP
Listen in your browser - HTML5 player(in browser, HTML5)
Click here to listen with your own player(launches your MP3 player)

EHAM 270925Z 19015KT 160V220 9999 FEW011 10/08 Q1002 NOSIG

EHAM Flight Activity (Flightaware)

Listeners: 0 out of 925 total

Amsterdam Arrival (Secondary): 131.150

EHAM Arrival (Secondary/Backup) (Archives)
Amsterdam, Netherlands

Feed Status: UP
Listen in your browser - HTML5 player(in browser, HTML5)
Click here to listen with your own player(launches your MP3 player)

EHAM 270925Z 19015KT 160V220 9999 FEW011 10/08 Q1002 NOSIG

EHAM Flight Activity (Flightaware)

Listeners: 0 out of 925 total

Amsterdam Arrival (Secondary Backup): 131.275

EHAM Arrival Backup/Discrete (Archives)
Amsterdam, Netherlands

Feed Status: UP
Listen in your browser - HTML5 player(in browser, HTML5)
Click here to listen with your own player(launches your MP3 player)

EHAM 270925Z 19015KT 160V220 9999 FEW011 10/08 Q1002 NOSIG

EHAM Flight Activity (Flightaware)

Listeners: 0 out of 925 total

Schiphol Arrival Backup: 126.675

EHAM Clearance Delivery (Archives)
Amsterdam, Netherlands

Feed Status: UP
Listen in your browser - HTML5 player(in browser, HTML5)
Click here to listen with your own player(launches your MP3 player)

EHAM 270925Z 19015KT 160V220 9999 FEW011 10/08 Q1002 NOSIG

EHAM Flight Activity (Flightaware)

Listeners: 0 out of 925 total

Schiphol Clearance Delivery: 121.980

EHAM Ground (Backup) (Archives)
Amsterdam, Netherlands

Feed Status: UP
Listen in your browser - HTML5 player(in browser, HTML5)
Click here to listen with your own player(launches your MP3 player)

EHAM 270925Z 19015KT 160V220 9999 FEW011 10/08 Q1002 NOSIG

EHAM Flight Activity (Flightaware)

Listeners: 0 out of 925 total

Schiphol Ground (Backup): 122.425

EHAM Ground (North) (Archives)
Amsterdam, Netherlands

Feed Status: UP
Listen in your browser - HTML5 player(in browser, HTML5)
Click here to listen with your own player(launches your MP3 player)

EHAM 270925Z 19015KT 160V220 9999 FEW011 10/08 Q1002 NOSIG

EHAM Flight Activity (Flightaware)

Listeners: 0 out of 925 total

Schiphol Ground (North): 121.805

EHAM Ground (South) (Archives)
Amsterdam, Netherlands

Feed Status: UP
Listen in your browser - HTML5 player(in browser, HTML5)
Click here to listen with your own player(launches your MP3 player)

EHAM 270925Z 19015KT 160V220 9999 FEW011 10/08 Q1002 NOSIG

EHAM Flight Activity (Flightaware)

Listeners: 0 out of 925 total

Schiphol Ground (South): 121.705

EHAM Ground (West) (Archives)
Amsterdam, Netherlands

Feed Status: UP
Listen in your browser - HTML5 player(in browser, HTML5)
Click here to listen with your own player(launches your MP3 player)

EHAM 270925Z 19015KT 160V220 9999 FEW011 10/08 Q1002 NOSIG

EHAM Flight Activity (Flightaware)

Listeners: 0 out of 925 total

Schiphol Ground (West): 121.560

EHAM Info North Sea (North) (Archives)
Amsterdam, Netherlands

Feed Status: UP
Listen in your browser - HTML5 player(in browser, HTML5)
Click here to listen with your own player(launches your MP3 player)

EHAM 270925Z 19015KT 160V220 9999 FEW011 10/08 Q1002 NOSIG

EHAM Flight Activity (Flightaware)

Listeners: 0 out of 925 total

Amsterdam Info North Sea (North): 119.175

EHAM Info North Sea (Over Land) (Archives)
Amsterdam, Netherlands

Feed Status: UP
Listen in your browser - HTML5 player(in browser, HTML5)
Click here to listen with your own player(launches your MP3 player)

EHAM 270925Z 19015KT 160V220 9999 FEW011 10/08 Q1002 NOSIG

EHAM Flight Activity (Flightaware)

Listeners: 2 out of 925 total

Amsterdam Info North Sea (Over Land): 124.300

EHAM Info North Sea (South) (Archives)
Amsterdam, Netherlands

Feed Status: UP
Listen in your browser - HTML5 player(in browser, HTML5)
Click here to listen with your own player(launches your MP3 player)

EHAM 270925Z 19015KT 160V220 9999 FEW011 10/08 Q1002 NOSIG

EHAM Flight Activity (Flightaware)

Listeners: 0 out of 925 total

Amsterdam Info North Sea (South): 136.650

EHAM Ops
Amsterdam, Netherlands

Feed Status: DOWN
Offline since: 2020-03-16 09:18:38 UTC

EHAM 270925Z 19015KT 160V220 9999 FEW011 10/08 Q1002 NOSIG

Schiphol Ops 1: 465.770
Schiphol Ops 2: 466.470
Schiphol Runway Ops: 447.175

EHAM Schiphol Outbound Planner (Archives)
Amsterdam, Netherlands

Feed Status: UP
Listen in your browser - HTML5 player(in browser, HTML5)
Click here to listen with your own player(launches your MP3 player)

EHAM 270925Z 19015KT 160V220 9999 FEW011 10/08 Q1002 NOSIG

EHAM Flight Activity (Flightaware)

Listeners: 0 out of 925 total

Schiphol Outbound Planner: 121.655

EHAM Tow Traffic (Archives)
Amsterdam, Netherlands

Feed Status: UP
Listen in your browser - HTML5 player(in browser, HTML5)
Click here to listen with your own player(launches your MP3 player)

EHAM 270925Z 19015KT 160V220 9999 FEW011 10/08 Q1002 NOSIG

EHAM Flight Activity (Flightaware)

Listeners: 0 out of 925 total

Schiphol Tow Traffic: 134.875

EHAM Tower (06/24) (Archives)
Amsterdam, Netherlands

Feed Status: UP
Listen in your browser - HTML5 player(in browser, HTML5)
Click here to listen with your own player(launches your MP3 player)

EHAM 270925Z 19015KT 160V220 9999 FEW011 10/08 Q1002 NOSIG

EHAM Flight Activity (Flightaware)

Listeners: 3 out of 925 total

Schiphol Tower Main 06/24: 135.110

EHAM Tower (18C/36C-27/09) (Archives)
Amsterdam, Netherlands

Feed Status: UP
Listen in your browser - HTML5 player(in browser, HTML5)
Click here to listen with your own player(launches your MP3 player)

EHAM 270925Z 19015KT 160V220 9999 FEW011 10/08 Q1002 NOSIG

EHAM Flight Activity (Flightaware)

Listeners: 7 out of 925 total

Schiphol Tower Main 18C/36C - 27/09: 118.100

EHAM Tower (18L/36R-22/04) (Archives)
Amsterdam, Netherlands

Feed Status: UP
Listen in your browser - HTML5 player(in browser, HTML5)
Click here to listen with your own player(launches your MP3 player)

EHAM 270925Z 19015KT 160V220 9999 FEW011 10/08 Q1002 NOSIG

EHAM Flight Activity (Flightaware)

Listeners: 1 out of 925 total

Schiphol Tower Main 18L/36R - 22/04: 119.225

EHAM Tower Backup (Archives)
Amsterdam, Netherlands

Feed Status: UP
Listen in your browser - HTML5 player(in browser, HTML5)
Click here to listen with your own player(launches your MP3 player)

EHAM 270925Z 19015KT 160V220 9999 FEW011 10/08 Q1002 NOSIG

EHAM Flight Activity (Flightaware)

Listeners: 0 out of 925 total

Schiphol Tower Backup: 119.905

EHAM Tower West (18R/36L) (Archives)
Amsterdam, Netherlands

Feed Status: UP
Listen in your browser - HTML5 player(in browser, HTML5)
Click here to listen with your own player(launches your MP3 player)

EHAM 270925Z 19015KT 160V220 9999 FEW011 10/08 Q1002 NOSIG

EHAM Flight Activity (Flightaware)

Listeners: 2 out of 925 total

Schiphol Tower West 18R/36L: 118.280

EHBK ATIS (Archives)
Beek, Netherlands

Feed Status: UP
Listen in your browser - HTML5 player(in browser, HTML5)
Click here to listen with your own player(launches your MP3 player)

EHBK 270925Z AUTO 20017KT 9999 BKN016 OVC020 10/06 Q1006 NOSIG

EHBK Flight Activity (Flightaware)

Listeners: 0 out of 925 total

Beek ATIS: 124.575

EHBK Gnd/Twr/App (Archives)
Beek, Netherlands

Feed Status: UP
Listen in your browser - HTML5 player(in browser, HTML5)
Click here to listen with your own player(launches your MP3 player)

EHBK 270925Z AUTO 20017KT 9999 BKN016 OVC020 10/06 Q1006 NOSIG

EHBK Flight Activity (Flightaware)

Listeners: 4 out of 925 total

Beek Approach: 120.200
Beek Approach: 123.975
Beek Ground: 121.825
Beek Tower: 119.475
Beek Tower: 119.700

MUAC/Eurocontrol Delta High (Archives)
Beek, Netherlands

Feed Status: UP
Listen in your browser - HTML5 player(in browser, HTML5)
Click here to listen with your own player(launches your MP3 player)

EHBK 270925Z AUTO 20017KT 9999 BKN016 OVC020 10/06 Q1006 NOSIG

EHBK Flight Activity (Flightaware)

Listeners: 0 out of 925 total

MUAC Delta High Sector: 132.085

MUAC/Eurocontrol Koksy (Archives)
Beek, Netherlands

Feed Status: UP
Listen in your browser - HTML5 player(in browser, HTML5)
Click here to listen with your own player(launches your MP3 player)

EHBK 270925Z AUTO 20017KT 9999 BKN016 OVC020 10/06 Q1006 NOSIG

EHBK Flight Activity (Flightaware)

Listeners: 0 out of 925 total

MUAC Koksy Sector: 132.205

MUAC/Eurocontrol Koksy High (Archives)
Beek, Netherlands

Feed Status: UP
Listen in your browser - HTML5 player(in browser, HTML5)
Click here to listen with your own player(launches your MP3 player)

EHBK 270925Z AUTO 20017KT 9999 BKN016 OVC020 10/06 Q1006 NOSIG

EHBK Flight Activity (Flightaware)

Listeners: 1 out of 925 total

MUAC Koksy High Sector: 132.755

MUAC/Eurocontrol Lux High (Archives)
Beek, Netherlands

Feed Status: UP
Listen in your browser - HTML5 player(in browser, HTML5)
Click here to listen with your own player(launches your MP3 player)

EHBK 270925Z AUTO 20017KT 9999 BKN016 OVC020 10/06 Q1006 NOSIG

EHBK Flight Activity (Flightaware)

Listeners: 1 out of 925 total

MUAC Lux High Sector: 132.315

MUAC/Eurocontrol Lux Low (Archives)
Beek, Netherlands

Feed Status: UP
Listen in your browser - HTML5 player(in browser, HTML5)
Click here to listen with your own player(launches your MP3 player)

EHBK 270925Z AUTO 20017KT 9999 BKN016 OVC020 10/06 Q1006 NOSIG

EHBK Flight Activity (Flightaware)

Listeners: 0 out of 925 total

MUAC Lux Low Sector: 133.355

MUAC/Eurocontrol Olno Low (Archives)
Beek, Netherlands

Feed Status: UP
Listen in your browser - HTML5 player(in browser, HTML5)
Click here to listen with your own player(launches your MP3 player)

EHBK 270925Z AUTO 20017KT 9999 BKN016 OVC020 10/06 Q1006 NOSIG

EHBK Flight Activity (Flightaware)

Listeners: 0 out of 925 total

MUAC Olno Low Sector: 132.855

MUAC/Eurocontrol Ruhr (Archives)
Beek, Netherlands

Feed Status: UP
Listen in your browser - HTML5 player(in browser, HTML5)
Click here to listen with your own player(launches your MP3 player)

EHBK 270925Z AUTO 20017KT 9999 BKN016 OVC020 10/06 Q1006 NOSIG

EHBK Flight Activity (Flightaware)

Listeners: 0 out of 925 total

MUAC Ruhr Sector: 132.515

EHEH Approach #1 (Archives)
Eindhoven, Netherlands

Feed Status: UP
Listen in your browser - HTML5 player(in browser, HTML5)
Click here to listen with your own player(launches your MP3 player)

EHEH 270925Z AUTO 20013KT 9999 OVC016 11/07 Q1004 WHT TEMPO SCT012 BKN015

EHEH Flight Activity (Flightaware)

Listeners: 4 out of 925 total

DutchMil: 132.530
DutchMil RAPCON South: 379.925
DutchMil RAPCON South: 123.180
Eindhoven Arrival/Director: 124.530

EHEH Ground
Eindhoven, Netherlands

Feed Status: DOWN
Offline since: 2020-04-23 06:00:22 UTC

EHEH 270925Z AUTO 20013KT 9999 OVC016 11/07 Q1004 WHT TEMPO SCT012 BKN015

Eindhoven Ground: 121.930
Eindhoven Ground: 369.250

EHEH Tower #1 (Archives)
Eindhoven, Netherlands

Feed Status: UP
Listen in your browser - HTML5 player(in browser, HTML5)
Click here to listen with your own player(launches your MP3 player)

EHEH 270925Z AUTO 20013KT 9999 OVC016 11/07 Q1004 WHT TEMPO SCT012 BKN015

EHEH Flight Activity (Flightaware)

Listeners: 1 out of 925 total

Budel Tower: 122.155
Eindhoven Tower: 131.005
Emergency/Guard: 121.500
Generic Tower: 122.100
Volkel Tower: 372.225
Volkel Tower: 136.080

EHEH Tower #2
Eindhoven, Netherlands

Feed Status: DOWN
Offline since: 2020-04-23 06:00:22 UTC

EHEH 270925Z AUTO 20013KT 9999 OVC016 11/07 Q1004 WHT TEMPO SCT012 BKN015

Eindhoven Tower: 122.100
Eindhoven Tower: 131.005
Eindhoven Tower: 281.150

EHGG Approach (Archives)
Groningen, Netherlands

Feed Status: UP
Listen in your browser - HTML5 player(in browser, HTML5)
Click here to listen with your own player(launches your MP3 player)

EHGG 270925Z AUTO 21009KT 180V240 9999 SCT008 BKN009 OVC010 10/08 Q1002 BECMG BKN012 TEMPO -SHRA FEW020CB

EHGG Flight Activity (Flightaware)

Listeners: 0 out of 925 total

Eelde Approach: 120.305

EHGG ATIS (Archives)
Groningen, Netherlands

Feed Status: UP
Listen in your browser - HTML5 player(in browser, HTML5)
Click here to listen with your own player(launches your MP3 player)

EHGG 270925Z AUTO 21009KT 180V240 9999 SCT008 BKN009 OVC010 10/08 Q1002 BECMG BKN012 TEMPO -SHRA FEW020CB

EHGG Flight Activity (Flightaware)

Listeners: 0 out of 925 total

Groningen ATIS: 133.555

EHGG Ground (Archives)
Groningen, Netherlands

Feed Status: UP
Listen in your browser - HTML5 player(in browser, HTML5)
Click here to listen with your own player(launches your MP3 player)

EHGG 270925Z AUTO 21009KT 180V240 9999 SCT008 BKN009 OVC010 10/08 Q1002 BECMG BKN012 TEMPO -SHRA FEW020CB

EHGG Flight Activity (Flightaware)

Listeners: 0 out of 925 total

Eelde Clearance Delivery/Ground: 121.705

EHGG Guard/Emergency (Archives)
Groningen, Netherlands

Feed Status: UP
Listen in your browser - HTML5 player(in browser, HTML5)
Click here to listen with your own player(launches your MP3 player)

EHGG 270925Z AUTO 21009KT 180V240 9999 SCT008 BKN009 OVC010 10/08 Q1002 BECMG BKN012 TEMPO -SHRA FEW020CB

EHGG Flight Activity (Flightaware)

Listeners: 0 out of 925 total

Emergency/Guard: 121.500

EHGG Tower (Archives)
Groningen, Netherlands

Feed Status: UP
Listen in your browser - HTML5 player(in browser, HTML5)
Click here to listen with your own player(launches your MP3 player)

EHGG 270925Z AUTO 21009KT 180V240 9999 SCT008 BKN009 OVC010 10/08 Q1002 BECMG BKN012 TEMPO -SHRA FEW020CB

EHGG Flight Activity (Flightaware)

Listeners: 1 out of 925 total

Eelde Tower: 118.705

EHGG Twr/App (Secondary) (Archives)
Groningen, Netherlands

Feed Status: UP
Listen in your browser - HTML5 player(in browser, HTML5)
Click here to listen with your own player(launches your MP3 player)

EHGG 270925Z AUTO 21009KT 180V240 9999 SCT008 BKN009 OVC010 10/08 Q1002 BECMG BKN012 TEMPO -SHRA FEW020CB

EHGG Flight Activity (Flightaware)

Listeners: 0 out of 925 total

Eelde Tower/App (Backup): 119.705

MUAC/Eurocontrol (EHGG Area) (Archives)
Groningen, Netherlands

Feed Status: UP
Listen in your browser - HTML5 player(in browser, HTML5)
Click here to listen with your own player(launches your MP3 player)

EHGG 270925Z AUTO 21009KT 180V240 9999 SCT008 BKN009 OVC010 10/08 Q1002 BECMG BKN012 TEMPO -SHRA FEW020CB

EHGG Flight Activity (Flightaware)

Listeners: 0 out of 925 total

MUAC Holstein High Sector: 132.775
MUAC Holstein Sector: 120.9333
MUAC Javer High Sector: 134.700
MUAC Jever Sector: 136.4666

EHGR Ground (Archives)
Breda, Netherlands

Feed Status: UP
Listen in your browser - HTML5 player(in browser, HTML5)
Click here to listen with your own player(launches your MP3 player)

EHGR 270925Z AUTO 20012KT 160V250 9999 SCT012 BKN014 BKN240 10/08 Q1004 GRN BECMG SCT018

EHGR Flight Activity (Flightaware)

Listeners: 0 out of 925 total

Gilze Rijen Ground: 121.680

EHGR Ground/Tower (Archives)
Breda, Netherlands

Feed Status: UP
Listen in your browser - HTML5 player(in browser, HTML5)
Click here to listen with your own player(launches your MP3 player)

EHGR 270925Z AUTO 20012KT 160V250 9999 SCT012 BKN014 BKN240 10/08 Q1004 GRN BECMG SCT018

EHGR Flight Activity (Flightaware)

Listeners: 0 out of 925 total

Gilze Rijen Ground: 121.680
Gilze Rijen Tower: 125.330

EHGR Tower (Archives)
Breda, Netherlands

Feed Status: UP
Listen in your browser - HTML5 player(in browser, HTML5)
Click here to listen with your own player(launches your MP3 player)

EHGR 270925Z AUTO 20012KT 160V250 9999 SCT012 BKN014 BKN240 10/08 Q1004 GRN BECMG SCT018

EHGR Flight Activity (Flightaware)

Listeners: 0 out of 925 total

Gilze Rijen Tower: 125.330

EHHV CTAF (Archives)
Hilversum, Netherlands

Feed Status: UP
Listen in your browser - HTML5 player(in browser, HTML5)
Click here to listen with your own player(launches your MP3 player)

EHHV Flight Activity (Flightaware)

Listeners: 0 out of 925 total

Hilversum Radio: 131.025

EHKD ATIS (Archives)
Den Helder, Netherlands

Feed Status: UP
Listen in your browser - HTML5 player(in browser, HTML5)
Click here to listen with your own player(launches your MP3 player)

EHKD 270925Z AUTO 18016KT 160V220 9999 FEW015CB SCT027 BKN035 09/08 Q1001 REDZ BLU TEMPO 4500 SHRA SCT014CB BKN025

EHKD Flight Activity (Flightaware)

Listeners: 0 out of 925 total

De Kooy ATIS: 133.015

EHKD Ground/Tower (Archives)
Den Helder, Netherlands

Feed Status: UP
Listen in your browser - HTML5 player(in browser, HTML5)
Click here to listen with your own player(launches your MP3 player)

EHKD 270925Z AUTO 18016KT 160V220 9999 FEW015CB SCT027 BKN035 09/08 Q1001 REDZ BLU TEMPO 4500 SHRA SCT014CB BKN025

EHKD Flight Activity (Flightaware)

Listeners: 1 out of 925 total

De Kooy Ground: 121.730
De Kooy Tower: 120.130

Approach/Dutch Mil Radar (Archives)
Lelystad, Netherlands

Feed Status: UP
Listen in your browser - HTML5 player(in browser, HTML5)
Click here to listen with your own player(launches your MP3 player)

EHLE 270925Z AUTO 20014KT 170V240 9999 OVC010 10/08 Q1002 BECMG SCT020

EHLE Flight Activity (Flightaware)

Listeners: 1 out of 925 total

Dutch Mil Flight Info: 264.325
Dutch Mil Radar: 128.355
Dutch Mil Radar: 132.350

EHLE Tower (Archives)
Lelystad, Netherlands

Feed Status: UP
Listen in your browser - HTML5 player(in browser, HTML5)
Click here to listen with your own player(launches your MP3 player)

EHLE 270925Z AUTO 20014KT 170V240 9999 OVC010 10/08 Q1002 BECMG SCT020

EHLE Flight Activity (Flightaware)

Listeners: 4 out of 925 total

Lelystad Clearance Delivery: 123.680
Lelystad Tower: 135.180
Lelystad Tower: 123.830

EHMC/EHML Military/Radar
Nieuw-Milligen, Netherlands

Feed Status: DOWN
Offline since: 2020-10-08 18:29:22 UTC

AMCC: 234.000
Belga Radar: 129.325
Command Post: 313.550
Dutch Military Radar: 120.825
Dutch Military Radar: 125.925
Dutch Military Radar: 128.350
GCI: 363.100
Lippe Radar: 131.075
London Mil: 135.275
Meteo: 284.425

EHMC/EHML Military/Radar
Nieuw-Milligen, Netherlands

Feed Status: DOWN
Offline since: 2020-10-08 18:29:22 UTC

AMCC: 234.000
Belga Radar: 129.325
Command Post: 313.550
Dutch Military Radar: 120.825
Dutch Military Radar: 125.925
Dutch Military Radar: 128.350
GCI: 363.100
Lippe Radar: 131.075
London Mil: 135.275
Meteo: 284.425

EHMM CTAF (Archives)
Middenmeer, Netherlands

Feed Status: UP
Listen in your browser - HTML5 player(in browser, HTML5)
Click here to listen with your own player(launches your MP3 player)

EHMM Flight Activity (Flightaware)

Listeners: 0 out of 925 total

Middenmeer CTAF: 123.425

EHMZ (Archives)
Middelburg, Netherlands

Feed Status: UP
Listen in your browser - HTML5 player(in browser, HTML5)
Click here to listen with your own player(launches your MP3 player)

EHMZ Flight Activity (Flightaware)

Listeners: 1 out of 925 total

Midden-Zeeland Radio: 119.255

EHRD Approach (Archives)
Rotterdam, Netherlands

Feed Status: UP
Listen in your browser - HTML5 player(in browser, HTML5)
Click here to listen with your own player(launches your MP3 player)

EHRD 270925Z AUTO 19013KT 160V230 9999 BKN010 BKN013 OVC015 10/08 Q1002 BECMG SCT020

EHRD Flight Activity (Flightaware)

Listeners: 0 out of 925 total

Rotterdam Approach: 122.990
Rotterdam Approach: 124.535
Rotterdam Approach: 281.050

EHRD Clearance Delivery (Archives)
Rotterdam, Netherlands

Feed Status: UP
Listen in your browser - HTML5 player(in browser, HTML5)
Click here to listen with your own player(launches your MP3 player)

EHRD 270925Z AUTO 19013KT 160V230 9999 BKN010 BKN013 OVC015 10/08 Q1002 BECMG SCT020

EHRD Flight Activity (Flightaware)

Listeners: 0 out of 925 total

Rotterdam Del/Gnd: 122.180

EHRD Del/Twr (Archives)
Rotterdam, Netherlands

Feed Status: UP
Listen in your browser - HTML5 player(in browser, HTML5)
Click here to listen with your own player(launches your MP3 player)

EHRD 270925Z AUTO 19013KT 160V230 9999 BKN010 BKN013 OVC015 10/08 Q1002 BECMG SCT020

EHRD Flight Activity (Flightaware)

Listeners: 1 out of 925 total

Rotterdam Del/Gnd: 122.180
Rotterdam Tower: 118.205

EHRD Gnd/Twr/App (Archives)
Rotterdam, Netherlands

Feed Status: UP
Listen in your browser - HTML5 player(in browser, HTML5)
Click here to listen with your own player(launches your MP3 player)

EHRD 270925Z AUTO 19013KT 160V230 9999 BKN010 BKN013 OVC015 10/08 Q1002 BECMG SCT020

EHRD Flight Activity (Flightaware)

Listeners: 4 out of 925 total

Adam Info: 124.300
Regional Guard: 119.705
Rotterdam Approach: 127.025
Rotterdam Del/Gnd: 122.180
Rotterdam Tower: 118.205
SAR: 123.100
SAR: 282.800

EHRD Tower (Archives)
Rotterdam, Netherlands

Feed Status: UP
Listen in your browser - HTML5 player(in browser, HTML5)
Click here to listen with your own player(launches your MP3 player)

EHRD 270925Z AUTO 19013KT 160V230 9999 BKN010 BKN013 OVC015 10/08 Q1002 BECMG SCT020

EHRD Flight Activity (Flightaware)

Listeners: 1 out of 925 total

Rotterdam Tower: 118.205
Rotterdam Tower: 362.300

EHRD Twr/App
Rotterdam, Netherlands

Feed Status: DOWN
Offline since: 2020-03-14 14:15:39 UTC

EHRD 270925Z AUTO 19013KT 160V230 9999 BKN010 BKN013 OVC015 10/08 Q1002 BECMG SCT020

Rotterdam Approach: 127.025
Rotterdam Tower: 118.205

EHTX Gnd/Twr (Archives)
Texel, Netherlands

Feed Status: UP
Listen in your browser - HTML5 player(in browser, HTML5)
Click here to listen with your own player(launches your MP3 player)

EHTX Flight Activity (Flightaware)

Listeners: 0 out of 925 total

Texel Radio (Ground/Tower): 119.300

EHVL CTAF/Range Control (Archives)
Vlieland, Netherlands

Feed Status: UP
Listen in your browser - HTML5 player(in browser, HTML5)
Click here to listen with your own player(launches your MP3 player)

EHVL 270925Z AUTO 19018KT 9999 FEW026 SCT031 BKN046 11/08 Q//// BLU

EHVL Flight Activity (Flightaware)

Listeners: 0 out of 925 total

Cornfield VHF (CTAF): 122.100
Range Controller (Primary): 291.650
Range Controller (Secondary): 370.300
Range Controller VHF: 138.075

EICK Approach/Departure
Cork, Ireland

Feed Status: DOWN
Offline since: 2020-09-05 00:12:22 UTC

EICK 270900Z 26010KT 9999 FEW009 SCT048 09/07 Q0990 NOSIG

Cork Approach: 119.900

EICK Gnd/Twr/App/Dep
Cork, Ireland

Feed Status: DOWN
Offline since: 2020-09-05 00:12:22 UTC

EICK 270900Z 26010KT 9999 FEW009 SCT048 09/07 Q0990 NOSIG

Cork Approach: 119.900
Cork Ground: 121.850
Cork Tower: 119.300

EICK Ground/Tower
Cork, Ireland

Feed Status: DOWN
Offline since: 2020-09-05 00:12:22 UTC

EICK 270900Z 26010KT 9999 FEW009 SCT048 09/07 Q0990 NOSIG

Cork Ground: 121.850
Cork Tower: 119.300

EIDW Approach (Archives)
Dublin, Ireland

Feed Status: UP
Listen in your browser - HTML5 player(in browser, HTML5)
Click here to listen with your own player(launches your MP3 player)

EIDW 270900Z 16005KT 130V190 8000 -RA SCT011 BKN014 BKN018 10/10 Q0986 TEMPO BKN010

EIDW Flight Activity (Flightaware)

Listeners: 2 out of 925 total

Dublin Approach: 121.100

EIDW Approach (Final) (Archives)
Dublin, Ireland

Feed Status: UP
Listen in your browser - HTML5 player(in browser, HTML5)
Click here to listen with your own player(launches your MP3 player)

EIDW 270900Z 16005KT 130V190 8000 -RA SCT011 BKN014 BKN018 10/10 Q0986 TEMPO BKN010

EIDW Flight Activity (Flightaware)

Listeners: 2 out of 925 total

Dublin Approach (Final): 119.925

EIDW Clearance Delivery (Archives)
Dublin, Ireland

Feed Status: UP
Listen in your browser - HTML5 player(in browser, HTML5)
Click here to listen with your own player(launches your MP3 player)

EIDW 270900Z 16005KT 130V190 8000 -RA SCT011 BKN014 BKN018 10/10 Q0986 TEMPO BKN010

EIDW Flight Activity (Flightaware)

Listeners: 1 out of 925 total

Dublin Clearance Delivery: 121.875

EIDW Del/Gnd/Twr/App/Center (Archives)
Dublin, Ireland

Feed Status: UP
Listen in your browser - HTML5 player(in browser, HTML5)
Click here to listen with your own player(launches your MP3 player)

EIDW 270900Z 16005KT 130V190 8000 -RA SCT011 BKN014 BKN018 10/10 Q0986 TEMPO BKN010

EIDW Flight Activity (Flightaware)

Listeners: 16 out of 925 total

Dublin Approach: 121.100
Dublin Approach (backup): 119.550
Dublin Centre North: 129.175
Dublin Centre South: 126.250
Dublin Clearance Delivery: 121.875
Dublin FIS: 118.500
Dublin Ground: 121.800
Dublin Tower: 118.600

EIDW Ground (Archives)
Dublin, Ireland

Feed Status: UP
Listen in your browser - HTML5 player(in browser, HTML5)
Click here to listen with your own player(launches your MP3 player)

EIDW 270900Z 16005KT 130V190 8000 -RA SCT011 BKN014 BKN018 10/10 Q0986 TEMPO BKN010

EIDW Flight Activity (Flightaware)

Listeners: 1 out of 925 total

Dublin Ground: 121.800

EIDW Ground (North) (Archives)
Dublin, Ireland

Feed Status: UP
Listen in your browser - HTML5 player(in browser, HTML5)
Click here to listen with your own player(launches your MP3 player)

EIDW 270900Z 16005KT 130V190 8000 -RA SCT011 BKN014 BKN018 10/10 Q0986 TEMPO BKN010

EIDW Flight Activity (Flightaware)

Listeners: 1 out of 925 total

Dublin Ground (North): 118.750

EIDW Tower (Archives)
Dublin, Ireland

Feed Status: UP
Listen in your browser - HTML5 player(in browser, HTML5)
Click here to listen with your own player(launches your MP3 player)

EIDW 270900Z 16005KT 130V190 8000 -RA SCT011 BKN014 BKN018 10/10 Q0986 TEMPO BKN010

EIDW Flight Activity (Flightaware)

Listeners: 2 out of 925 total

Dublin Tower: 118.600

EIKN Gnd/Twr/App (Archives)
Charlestown, Ireland

Feed Status: UP
Listen in your browser - HTML5 player(in browser, HTML5)
Click here to listen with your own player(launches your MP3 player)

EIKN 261200Z 30021KT 9999 FEW012 FEW020CB SCT038 10/07 Q0998 NOSIG

EIKN Flight Activity (Flightaware)

Listeners: 1 out of 925 total

Connaught Ground: 121.900
Connaught Tower: 130.700
Shannon Low Level: 119.075

EINN Shannon Control High (East) (Archives)
Shannon, Ireland

Feed Status: UP
Listen in your browser - HTML5 player(in browser, HTML5)
Click here to listen with your own player(launches your MP3 player)

EINN 270900Z 24012KT 9999 FEW010 SCT045 10/07 Q0989 NOSIG

EINN Flight Activity (Flightaware)

Listeners: 2 out of 925 total

Shannon Clearance (Oceanic only): 121.700
Shannon Control: 134.260
Shannon Control: 134.630
Shannon Control: 135.230
Shannon Control: 135.600
Shannon Control: 136.255
Shannon Control (BABAN/DEVOL Sector): 132.150

EINN Shannon Control High (West/Coastal) (Archives)
Shannon, Ireland

Feed Status: UP
Listen in your browser - HTML5 player(in browser, HTML5)
Click here to listen with your own player(launches your MP3 player)

EINN 270900Z 24012KT 9999 FEW010 SCT045 10/07 Q0989 NOSIG

EINN Flight Activity (Flightaware)

Listeners: 8 out of 925 total

Shannon Control: 131.150
Shannon Control: 125.880
Shannon Control: 120.040
Shannon Control: 122.980
Shannon Control: 127.130
Shannon Control: 129.665
Shannon Control: 133.360

EINN Shannon Control Low (Archives)
Shannon, Ireland

Feed Status: UP
Listen in your browser - HTML5 player(in browser, HTML5)
Click here to listen with your own player(launches your MP3 player)

EINN 270900Z 24012KT 9999 FEW010 SCT045 10/07 Q0989 NOSIG

EINN Flight Activity (Flightaware)

Listeners: 0 out of 925 total

Shannon Control (Low): 119.080
Shannon Control Low: 124.700

EINN Twr/App #1 (Archives)
Shannon, Ireland

Feed Status: UP
Listen in your browser - HTML5 player(in browser, HTML5)
Click here to listen with your own player(launches your MP3 player)

EINN 270900Z 24012KT 9999 FEW010 SCT045 10/07 Q0989 NOSIG

EINN Flight Activity (Flightaware)

Listeners: 2 out of 925 total

Aer Lingus Ops: 131.500
Service Air Ops: 131.450
Shannon Approach Radar: 121.400
Shannon Control: Misc
Shannon Ground: 121.800
Shannon Tower: 118.700
Sig Ops (Pre-Clearance): 131.590

ENAT Twr/App/Control (Archives)
Alta, Norway

Feed Status: UP
Listen in your browser - HTML5 player(in browser, HTML5)
Click here to listen with your own player(launches your MP3 player)

ENAT 270920Z 16010KT CAVOK 01/M04 Q0999 RMK WIND 700FT 16014KT

ENAT Flight Activity (Flightaware)

Listeners: 0 out of 925 total

Alta Tower (to boat, Harbour Channel 12): 156.600
Alta Tower (to vehicle): 462.400
Alta Tower/Approach: 120.400
Norway Control: 126.700

ENBO Approach (Archives)
Bodo, Norway

Feed Status: UP
Listen in your browser - HTML5 player(in browser, HTML5)
Click here to listen with your own player(launches your MP3 player)

ENBO 270920Z 09017KT 9999 FEW020 SCT150 05/M01 Q0994 NOSIG

ENBO Flight Activity (Flightaware)

Listeners: 0 out of 925 total

Bodo Approach: 119.700

ENBO Tower (Archives)
Bodo, Norway

Feed Status: UP
Listen in your browser - HTML5 player(in browser, HTML5)
Click here to listen with your own player(launches your MP3 player)

ENBO 270920Z 09017KT 9999 FEW020 SCT150 05/M01 Q0994 NOSIG

ENBO Flight Activity (Flightaware)

Listeners: 1 out of 925 total

Bodo Tower: 118.100

ENCN Tower/Approach (Archives)
Kristiansand, Norway

Feed Status: UP
Listen in your browser - HTML5 player(in browser, HTML5)
Click here to listen with your own player(launches your MP3 player)

ENCN 270920Z 14009KT 6000 -SHRA FEW010CB SCT020 BKN044 09/08 Q0993

ENCN Flight Activity (Flightaware)

Listeners: 0 out of 925 total

Kjevik Tower: 118.100
Kjevik Tower/Approach: 119.950

ENEV Twr/App/ACC
Evenes, Norway

Feed Status: DOWN
Offline since: 2020-10-27 09:58:38 UTC

ENEV 270920Z 15007KT 120V210 CAVOK 06/M01 Q0995 RMK WIND 1400FT 13010KT

Evenes Approach: 120.100
Evenes Tower: 118.000
Norway ACC (Bodo Sector 25): 126.450

ENGK Info (Archives)
Arendal, Norway

Feed Status: UP
Listen in your browser - HTML5 player(in browser, HTML5)
Click here to listen with your own player(launches your MP3 player)

ENGK 270920Z 16005KT 090V210 9000 SHRA BKN010 09/07 Q0994

ENGK Flight Activity (Flightaware)

Listeners: 0 out of 925 total

Gullknapp Info: 129.900

ENGM Approach
Oslo, Norway

Feed Status: DOWN
Offline since: 2020-09-30 06:53:38 UTC

ENGM 270920Z 15010KT 9999 SCT007 BKN009 08/07 Q0996 TEMPO 4000 SHRA SCT007 BKN015

Oslo Approach: 118.475
Oslo Approach: 120.450

ENGM Tower (Archives)
Oslo, Norway

Feed Status: UP
Listen in your browser - HTML5 player(in browser, HTML5)
Click here to listen with your own player(launches your MP3 player)

ENGM 270920Z 15010KT 9999 SCT007 BKN009 08/07 Q0996 TEMPO 4000 SHRA SCT007 BKN015

ENGM Flight Activity (Flightaware)

Listeners: 0 out of 925 total

Oslo Tower (East): 120.100
Oslo Tower (West): 118.300

ENHD Tower (Archives)
Haugesund, Norway

Feed Status: UP
Listen in your browser - HTML5 player(in browser, HTML5)
Click here to listen with your own player(launches your MP3 player)

ENHD Flight Activity (Flightaware)

Listeners: 0 out of 925 total

Karmoy Tower: 120.500

ENJB CTAF (Archives)
Tonsberg, Norway

Feed Status: UP
Listen in your browser - HTML5 player(in browser, HTML5)
Click here to listen with your own player(launches your MP3 player)

ENTO 270920Z 20015KT 140V220 9999 VCSH BKN010CB BKN023 10/09 Q0995 TEMPO 19015G25KT SCT012 BKN040

ENTO Flight Activity (Flightaware)

Listeners: 0 out of 925 total

Jarlsberg CTAF: 122.300

ENKJ RDO (Archives)
Kjeller, Norway

Feed Status: UP
Listen in your browser - HTML5 player(in browser, HTML5)
Click here to listen with your own player(launches your MP3 player)

ENKJ Flight Activity (Flightaware)

Listeners: 1 out of 925 total

Kjeller RDO: 119.100

ENLI CTAF (Archives)
Farsund, Norway

Feed Status: UP
Listen in your browser - HTML5 player(in browser, HTML5)
Click here to listen with your own player(launches your MP3 player)

ENLI Flight Activity (Flightaware)

Listeners: 0 out of 925 total

Lista Traffic/Lista Radio: 126.450

ENML Gnd/Twr/App/Center
Molde, Norway

Feed Status: DOWN
Offline since: 2020-04-17 21:29:05 UTC

ENML 270920Z VRB02KT CAVOK 06/02 Q0992

Molde Info: 119.950

ENRK CTAF (Archives)
Astorp, Norway

Feed Status: UP
Listen in your browser - HTML5 player(in browser, HTML5)
Click here to listen with your own player(launches your MP3 player)

ENRK Flight Activity (Flightaware)

Listeners: 0 out of 925 total

Rakkestad CTAF: 122.950

ENOR Sector 8 (Archives)
Moss, Norway

Feed Status: UP
Listen in your browser - HTML5 player(in browser, HTML5)
Click here to listen with your own player(launches your MP3 player)

ENOR Flight Activity (Flightaware)

Listeners: 0 out of 925 total

Norway Center (FIR) Sector 8: 118.875

ENRY Tower (Archives)
Moss, Norway

Feed Status: UP
Listen in your browser - HTML5 player(in browser, HTML5)
Click here to listen with your own player(launches your MP3 player)

ENRY 270920Z 13011KT 6000 -RA SCT008 BKN014 09/08 Q0996 TEMPO SCT008 BKN018

ENRY Flight Activity (Flightaware)

Listeners: 0 out of 925 total

Rygge Tower: 119.500

ENTC Tower/App (Archives)
Langnes, Norway

Feed Status: UP
Listen in your browser - HTML5 player(in browser, HTML5)
Click here to listen with your own player(launches your MP3 player)

ENTC 270920Z 20011KT 9999 FEW048 05/01 Q0996 NOSIG RMK WIND 2600FT 18018KT

ENTC Flight Activity (Flightaware)

Listeners: 0 out of 925 total

Langnes Tower: 118.300
Langnes VDF (Approach): 123.750

ENTO App/Dep (Archives)
Sandefjord, Norway

Feed Status: UP
Listen in your browser - HTML5 player(in browser, HTML5)
Click here to listen with your own player(launches your MP3 player)

ENTO 270920Z 20015KT 140V220 9999 VCSH BKN010CB BKN023 10/09 Q0995 TEMPO 19015G25KT SCT012 BKN040

ENTO Flight Activity (Flightaware)

Listeners: 0 out of 925 total

Sandefjord Approach (TMA): 134.050

ENTO Control Sector 4 (Archives)
Sandefjord, Norway

Feed Status: UP
Listen in your browser - HTML5 player(in browser, HTML5)
Click here to listen with your own player(launches your MP3 player)

ENTO 270920Z 20015KT 140V220 9999 VCSH BKN010CB BKN023 10/09 Q0995 TEMPO 19015G25KT SCT012 BKN040

ENTO Flight Activity (Flightaware)

Listeners: 0 out of 925 total

Norway control Sector 4: 118.875

ENTO Tower (Archives)
Sandefjord, Norway

Feed Status: UP
Listen in your browser - HTML5 player(in browser, HTML5)
Click here to listen with your own player(launches your MP3 player)

ENTO 270920Z 20015KT 140V220 9999 VCSH BKN010CB BKN023 10/09 Q0995 TEMPO 19015G25KT SCT012 BKN040

ENTO Flight Activity (Flightaware)

Listeners: 0 out of 925 total

Sandefjord Tower: 118.650

ENTO Tower/App (Archives)
Sandefjord, Norway

Feed Status: UP
Listen in your browser - HTML5 player(in browser, HTML5)
Click here to listen with your own player(launches your MP3 player)

ENTO 270920Z 20015KT 140V220 9999 VCSH BKN010CB BKN023 10/09 Q0995 TEMPO 19015G25KT SCT012 BKN040

ENTO Flight Activity (Flightaware)

Listeners: 0 out of 925 total

ENJB Tonsberg Airport - Jarlsberg - CTAF: 122.300
Farris Approach (TCA): 134.050
Sandefjord Tower: 118.650

ENTO Twr/App (Archives)
Sandefjord, Norway

Feed Status: UP
Listen in your browser - HTML5 player(in browser, HTML5)
Click here to listen with your own player(launches your MP3 player)

ENTO 270920Z 20015KT 140V220 9999 VCSH BKN010CB BKN023 10/09 Q0995 TEMPO 19015G25KT SCT012 BKN040

ENTO Flight Activity (Flightaware)

Listeners: 0 out of 925 total

Sandefjord Approach (TMA): 134.050
Sandefjord Tower: 118.650

ENVA Gnd/Twr/App (Archives)
Trondheim, Norway

Feed Status: UP
Listen in your browser - HTML5 player(in browser, HTML5)
Click here to listen with your own player(launches your MP3 player)

ENVA 270920Z 08005KT CAVOK 05/02 Q0993 NOSIG RMK WIND 670FT 16012KT

ENVA Flight Activity (Flightaware)

Listeners: 0 out of 925 total

Trondheim Approach: 118.600
Trondheim Ground: 121.600
Trondheim Tower: 119.400

ENZV Gnd/Twr/App (Archives)
Stavanger, Norway

Feed Status: UP
Listen in your browser - HTML5 player(in browser, HTML5)
Click here to listen with your own player(launches your MP3 player)

ENZV 270920Z 12009KT 9999 FEW025CB SCT060 11/06 Q0990 TEMPO SHRA

ENZV Flight Activity (Flightaware)

Listeners: 1 out of 925 total

Sola Approach/Departure: 119.600
Sola Ground: 121.750
Sola Tower: 118.350

EPGD Tower/Approach (Archives)
Gdansk, Poland

Feed Status: UP
Listen in your browser - HTML5 player(in browser, HTML5)
Click here to listen with your own player(launches your MP3 player)

EPGD 270900Z 24006KT 210V270 9999 FEW009 11/09 Q1008

EPGD Flight Activity (Flightaware)

Listeners: 0 out of 925 total

Gdansk Approach: 127.275
Gdansk Tower: 118.100

EPKK Tower/App (Archives)
Krakow, Poland

Feed Status: UP
Listen in your browser - HTML5 player(in browser, HTML5)
Click here to listen with your own player(launches your MP3 player)

EPKK 270900Z 09003KT 060V140 CAVOK 17/10 Q1011

EPKK Flight Activity (Flightaware)

Listeners: 4 out of 925 total

Krakow Approach: 121.075
Krakow Approach: 123.255
Krakow Tower: 123.255

EPKR CTAF (Archives)
Krosno, Poland

Feed Status: UP
Listen in your browser - HTML5 player(in browser, HTML5)
Click here to listen with your own player(launches your MP3 player)

EPKR Flight Activity (Flightaware)

Listeners: 0 out of 925 total

Krosno CTAF: 122.400

EPKT Del/Twr/App (Archives)
Katowice, Poland

Feed Status: UP
Listen in your browser - HTML5 player(in browser, HTML5)
Click here to listen with your own player(launches your MP3 player)

EPKT 270900Z 22003KT 150V280 9999 FEW018 BKN034 BKN038 14/10 Q1011

EPKT Flight Activity (Flightaware)

Listeners: 1 out of 925 total

Katowice Delivery: 121.800
Katowice Tower: 129.250
Krakow Approach: 135.400
Krakow Approach: 121.075

EPKT Delivery/Approach (Archives)
Katowice, Poland

Feed Status: UP
Listen in your browser - HTML5 player(in browser, HTML5)
Click here to listen with your own player(launches your MP3 player)

EPKT 270900Z 22003KT 150V280 9999 FEW018 BKN034 BKN038 14/10 Q1011

EPKT Flight Activity (Flightaware)

Listeners: 1 out of 925 total

Katowice Delivery: 121.800
Krakow Approach: 121.075

EPKT Tower/Approach (Archives)
Katowice, Poland

Feed Status: UP
Listen in your browser - HTML5 player(in browser, HTML5)
Click here to listen with your own player(launches your MP3 player)

EPKT 270900Z 22003KT 150V280 9999 FEW018 BKN034 BKN038 14/10 Q1011

EPKT Flight Activity (Flightaware)

Listeners: 0 out of 925 total

Katowice Tower: 129.250
Krakow Approach: 135.400

EPLL Tower (Archives)
Lodz, Poland

Feed Status: UP
Listen in your browser - HTML5 player(in browser, HTML5)
Click here to listen with your own player(launches your MP3 player)

EPLL 270900Z 20003KT 140V230 9999 SCT009 12/10 Q1011

EPLL Flight Activity (Flightaware)

Listeners: 1 out of 925 total

Lodz Tower: 124.230

EPML Info (Archives)
Mielec, Poland

Feed Status: UP
Listen in your browser - HTML5 player(in browser, HTML5)
Click here to listen with your own player(launches your MP3 player)

EPML Flight Activity (Flightaware)

Listeners: 3 out of 925 total

Mielec Info: 119.105

EPPO Twr/App/FIS (Archives)
Poznan, Poland

Feed Status: UP
Listen in your browser - HTML5 player(in browser, HTML5)
Click here to listen with your own player(launches your MP3 player)

EPPO 270900Z 23007KT 9999 OVC049 11/08 Q1010

EPPO Flight Activity (Flightaware)

Listeners: 0 out of 925 total

Poznan Approach: 129.025
Poznan Approach: 127.225
Poznan FIS: 126.300
Poznan Tower: 119.975

EPRZ Del/Twr/EPWW Radar (Archives)
Jasionka, Poland

Feed Status: UP
Listen in your browser - HTML5 player(in browser, HTML5)
Click here to listen with your own player(launches your MP3 player)

EPRZ 270900Z 19012KT CAVOK 16/11 Q1013

EPRZ Flight Activity (Flightaware)

Listeners: 3 out of 925 total

EPWW Radar: 134.175
EPWW Radar: 120.950
Rzeszow Delivery: 121.800
Rzeszow Tower: 126.800

EPWA Approach #1 (Archives)
Warsaw, Poland

Feed Status: UP
Listen in your browser - HTML5 player(in browser, HTML5)
Click here to listen with your own player(launches your MP3 player)

EPWA 270900Z 19005KT 130V240 CAVOK 15/12 Q1010 NOSIG

EPWA Flight Activity (Flightaware)

Listeners: 5 out of 925 total

Warsaw Approach: 128.800

EPWA Approach #2 (Archives)
Warsaw, Poland

Feed Status: UP
Listen in your browser - HTML5 player(in browser, HTML5)
Click here to listen with your own player(launches your MP3 player)

EPWA 270900Z 19005KT 130V240 CAVOK 15/12 Q1010 NOSIG

EPWA Flight Activity (Flightaware)

Listeners: 0 out of 925 total

Warsaw Approach: 125.050

EPWA Clearance Delivery (Archives)
Warsaw, Poland

Feed Status: UP
Listen in your browser - HTML5 player(in browser, HTML5)
Click here to listen with your own player(launches your MP3 player)

EPWA 270900Z 19005KT 130V240 CAVOK 15/12 Q1010 NOSIG

EPWA Flight Activity (Flightaware)

Listeners: 0 out of 925 total

Warsaw Clearance Delivery: 121.600

EPWA Director (Archives)
Warsaw, Poland

Feed Status: UP
Listen in your browser - HTML5 player(in browser, HTML5)
Click here to listen with your own player(launches your MP3 player)

EPWA 270900Z 19005KT 130V240 CAVOK 15/12 Q1010 NOSIG

EPWA Flight Activity (Flightaware)

Listeners: 0 out of 925 total

Warsaw Director: 129.375

EPWA Ground (Archives)
Warsaw, Poland

Feed Status: UP
Listen in your browser - HTML5 player(in browser, HTML5)
Click here to listen with your own player(launches your MP3 player)

EPWA 270900Z 19005KT 130V240 CAVOK 15/12 Q1010 NOSIG

EPWA Flight Activity (Flightaware)

Listeners: 0 out of 925 total

Warsaw Ground: 121.900

EPWA Tower #1 (Archives)
Warsaw, Poland

Feed Status: UP
Listen in your browser - HTML5 player(in browser, HTML5)
Click here to listen with your own player(launches your MP3 player)

EPWA 270900Z 19005KT 130V240 CAVOK 15/12 Q1010 NOSIG

EPWA Flight Activity (Flightaware)

Listeners: 6 out of 925 total

Warsaw Tower: 118.300

EPWA Tower #2 (Archives)
Warsaw, Poland

Feed Status: UP
Listen in your browser - HTML5 player(in browser, HTML5)
Click here to listen with your own player(launches your MP3 player)

EPWA 270900Z 19005KT 130V240 CAVOK 15/12 Q1010 NOSIG

EPWA Flight Activity (Flightaware)

Listeners: 0 out of 925 total

Warsaw Tower: 118.300

EPWR Twr/App (Archives)
Wroclaw, Poland

Feed Status: UP
Listen in your browser - HTML5 player(in browser, HTML5)
Click here to listen with your own player(launches your MP3 player)

EPPO 270900Z 23007KT 9999 OVC049 11/08 Q1010

EPPO Flight Activity (Flightaware)

Listeners: 0 out of 925 total

Poznan Approach (South): 127.225

EPRZ Del/Twr/EPWW Radar (Archives)
Jasionka, Poland

Feed Status: UP
Listen in your browser - HTML5 player(in browser, HTML5)
Click here to listen with your own player(launches your MP3 player)

EPRZ 270900Z 19012KT CAVOK 16/11 Q1013

EPRZ Flight Activity (Flightaware)

Listeners: 3 out of 925 total

EPWW Radar: 134.175
EPWW Radar: 120.950
Rzeszow Delivery: 121.800
Rzeszow Tower: 126.800

ESDF Gnd/Twr (Archives)
Ronneby, Sweden

Feed Status: UP
Listen in your browser - HTML5 player(in browser, HTML5)
Click here to listen with your own player(launches your MP3 player)

ESDF 270920Z 21008KT 9999 FEW017 BKN180 11/10 Q1004

ESDF Flight Activity (Flightaware)

Listeners: 1 out of 925 total

Ronneby Ground: 121.850
Ronneby Tower: 119.200

ESDF Ronneby Control (Archives)
Ronneby, Sweden

Feed Status: UP
Listen in your browser - HTML5 player(in browser, HTML5)
Click here to listen with your own player(launches your MP3 player)

ESDF 270920Z 21008KT 9999 FEW017 BKN180 11/10 Q1004

ESDF Flight Activity (Flightaware)

Listeners: 2 out of 925 total

Ronneby Control: 128.450

ESMQ Tower (Archives)
Kalmar, Sweden

Feed Status: UP
Listen in your browser - HTML5 player(in browser, HTML5)
Click here to listen with your own player(launches your MP3 player)

ESMQ 270920Z 18006KT 9999 FEW023 10/09 Q1005

ESMQ Flight Activity (Flightaware)

Listeners: 1 out of 925 total

Kalmar Tower: 130.805

ESMS Radar (Archives)
Svedala, Sweden

Feed Status: UP
Listen in your browser - HTML5 player(in browser, HTML5)
Click here to listen with your own player(launches your MP3 player)

ESMS 270920Z 19011KT 9999 FEW012 BKN027 OVC055 10/08 Q1004

ESMS Flight Activity (Flightaware)

Listeners: 0 out of 925 total

Sweden Control (Sector L, Malmo): 134.980

ESMS Tower (Archives)
Svedala, Sweden

Feed Status: UP
Listen in your browser - HTML5 player(in browser, HTML5)
Click here to listen with your own player(launches your MP3 player)

ESMS 270920Z 19011KT 9999 FEW012 BKN027 OVC055 10/08 Q1004

ESMS Flight Activity (Flightaware)

Listeners: 0 out of 925 total

Malmo Tower: 118.800

ESOE Tower/Control (Archives)
Orebro, Sweden

Feed Status: UP
Listen in your browser - HTML5 player(in browser, HTML5)
Click here to listen with your own player(launches your MP3 player)

ESOE 270920Z AUTO 19009KT 9999 NCD 10/08 Q1001

ESOE Flight Activity (Flightaware)

Listeners: 0 out of 925 total

Orebro Tower: 120.275
Orebro Tower: 120.280
Sweden Control: 131.125
Sweden Control (aircraft only): 131.125

ESOW Twr/CTAF/Control (Archives)
Stockholm, Sweden

Feed Status: UP
Listen in your browser - HTML5 player(in browser, HTML5)
Click here to listen with your own player(launches your MP3 player)

ESOW 270920Z 19009KT 9999 BKN007 10/08 Q1001

ESOW Flight Activity (Flightaware)

Listeners: 0 out of 925 total

Arlanda Approach: 123.750
Arlanda Approach: 126.655
Arlanda Approach: 130.325
Arlanda Departure: 124.100
Arlanda Tower: 118.505
Arlanda Tower: 128.725
Enkoping/Langtora: 123.525
Eskilstuna: 126.850
Frolunda: 123.400
Johannisberg CTAF: 123.650
Ska Edeby: 123.350
Stockholm Control: 120.155
Stockholm Control: 118.405
Stockholm Control: 118.280
Sweden Control: 133.260
Sweden Control: 129.175
Sweden Control: 131.130
Uppsala Tower: 119.200
Uppsala/Sundbro: 123.350
Vasteras Control: 125.955
Vasteras Tower: 130.600

ESPA Twr/Control (Archives)
Lulea, Sweden

Feed Status: UP
Listen in your browser - HTML5 player(in browser, HTML5)
Click here to listen with your own player(launches your MP3 player)

ESPA 270920Z 35005KT 0450 R14/0650V1700D R32/0900V1300D RA FG VV003 03/03 Q0998

ESPA Flight Activity (Flightaware)

Listeners: 1 out of 925 total

Emergency/Guard: 121.500
Kallax Control: 125.450
Kallax Tower: 128.200
Sweden Control North: 131.050

ESSG Misc (Archives)
Ludvika, Sweden

Feed Status: UP
Listen in your browser - HTML5 player(in browser, HTML5)
Click here to listen with your own player(launches your MP3 player)

ESSG Flight Activity (Flightaware)

Listeners: 0 out of 925 total

Avesta, Gagnef, Siljansnas: 123.550
Borlange Tower: 127.300
Dala-Jarna: 123.350
Emergency/Guard: 121.500
Karlstad: 119.450
Koping, Arboga, Borberg: 123.150
Ludvika CTAF: 122.100
Mora: 129.850
Orebro: 120.275
Orsa: 123.400
Soaring Freq: 123.500
Sweden Control: 131.125
Sweden Control: 129.175
Sweden Control: 118.200
Sweden Control: 132.150

ESSL Twr/App/Control (Archives)
Linkoping, Sweden

Feed Status: UP
Listen in your browser - HTML5 player(in browser, HTML5)
Click here to listen with your own player(launches your MP3 player)

ESSL 270920Z 19005KT CAVOK 09/08 Q1002

ESSL Flight Activity (Flightaware)

Listeners: 1 out of 925 total

Emergency/Guard: 121.500
Linkoping Tower: 118.800
Linkoping Tower (Secondary): 123.400
Ostgota Control: 127.350
Ostgota Control: 126.400
Ostgota Control: 135.850
Ostgota Control: 132.950
Ostgota Control: 128.700
Ostgota Control (Malmen Sector): 133.100
Ostgota Control/Sweden Control: 118.400

ESVQ CTAF (Archives)
Koping, Sweden

Feed Status: UP
Listen in your browser - HTML5 player(in browser, HTML5)
Click here to listen with your own player(launches your MP3 player)

ESVQ Flight Activity (Flightaware)

Listeners: 0 out of 925 total

Koping CTAF: 123.150

EVLA AFIS (Archives)
Liepaja, Latvia

Feed Status: UP
Listen in your browser - HTML5 player(in browser, HTML5)
Click here to listen with your own player(launches your MP3 player)

EVLA 270920Z AUTO 21007KT 9999 FEW011/// BKN019/// OVC029/// 13/11 Q1007

EVLA Flight Activity (Flightaware)

Listeners: 3 out of 925 total

Liepaja AFIS: 129.400

EVRA Approach (Archives)
Riga, Latvia

Feed Status: UP
Listen in your browser - HTML5 player(in browser, HTML5)
Click here to listen with your own player(launches your MP3 player)

EVRA 270920Z 18012KT 9999 OVC015 14/11 Q1008 R18/290195 BECMG BKN013 OVC015

EVRA Flight Activity (Flightaware)

Listeners: 0 out of 925 total

Riga Approach: 129.925

EVRA Approach (Archives)
Riga, Latvia

Feed Status: UP
Listen in your browser - HTML5 player(in browser, HTML5)
Click here to listen with your own player(launches your MP3 player)

EVLA 270920Z AUTO 21007KT 9999 FEW011/// BKN019/// OVC029/// 13/11 Q1007

EVLA Flight Activity (Flightaware)

Listeners: 0 out of 925 total

Riga Approach: 129.925

EVRA CTAF (Archives)
Riga, Latvia

Feed Status: UP
Listen in your browser - HTML5 player(in browser, HTML5)
Click here to listen with your own player(launches your MP3 player)

EVRA 270920Z 18012KT 9999 OVC015 14/11 Q1008 R18/290195 BECMG BKN013 OVC015

EVRA Flight Activity (Flightaware)

Listeners: 0 out of 925 total

Riga Approach (evenings): 134.850
Riga CTAF: 123.950

EVRA FIC (Archives)
Riga, Latvia

Feed Status: UP
Listen in your browser - HTML5 player(in browser, HTML5)
Click here to listen with your own player(launches your MP3 player)

EVRA 270920Z 18012KT 9999 OVC015 14/11 Q1008 R18/290195 BECMG BKN013 OVC015

EVRA Flight Activity (Flightaware)

Listeners: 0 out of 925 total

Riga FIC: 120.225

EVRA FIC (Archives)
Riga, Latvia

Feed Status: UP
Listen in your browser - HTML5 player(in browser, HTML5)
Click here to listen with your own player(launches your MP3 player)

EVLA 270920Z AUTO 21007KT 9999 FEW011/// BKN019/// OVC029/// 13/11 Q1007

EVLA Flight Activity (Flightaware)

Listeners: 0 out of 925 total

Riga FIC: 120.225

EVRA Tower/Guard (Archives)
Riga, Latvia

Feed Status: UP
Listen in your browser - HTML5 player(in browser, HTML5)
Click here to listen with your own player(launches your MP3 player)

EVRA 270920Z 18012KT 9999 OVC015 14/11 Q1008 R18/290195 BECMG BKN013 OVC015

EVRA Flight Activity (Flightaware)

Listeners: 1 out of 925 total

Emergency/Guard: 121.500
Riga Tower: 118.100

EYPA Tower (Archives)
Palanga, Lithuania

Feed Status: UP
Listen in your browser - HTML5 player(in browser, HTML5)
Click here to listen with your own player(launches your MP3 player)

EVLA 270920Z AUTO 21007KT 9999 FEW011/// BKN019/// OVC029/// 13/11 Q1007

EVLA Flight Activity (Flightaware)

Listeners: 0 out of 925 total

Palanga Tower: 124.300

EYVI Twr/App/Misc (Archives)
Vilnius, Lithuania

Feed Status: UP
Listen in your browser - HTML5 player(in browser, HTML5)
Click here to listen with your own player(launches your MP3 player)

EYVI 270920Z 17014KT 9000 OVC010 12/10 Q1012 NOSIG

EYVI Flight Activity (Flightaware)

Listeners: 1 out of 925 total

Emergency / GUARD: 121.500
FlyLAL, AirBaltic transit services: 131.900
FlyLAL, AirBaltic transit services: 131.600
FlyLAL, AirBaltic transit services: 131.500
Kaunas Approach (EYKA): 124.200
Vilnius Approach: 120.700
Vilnius Control: 132.275
Vilnius Control: 133.425
Vilnius Control: 133.300
Vilnius FIS: 123.850
Vilnius Tower: 118.200
Zokniai A/G (mil): 122.775

EYVP CTAF (Archives)
Paluknys, Lithuania

Feed Status: UP
Listen in your browser - HTML5 player(in browser, HTML5)
Click here to listen with your own player(launches your MP3 player)

EYVP Flight Activity (Flightaware)

Listeners: 0 out of 925 total

EYVP Paluknis CTAF: 119.100

LBBG Twr/App (Archives)
Burgas, Bulgaria

Feed Status: UP
Listen in your browser - HTML5 player(in browser, HTML5)
Click here to listen with your own player(launches your MP3 player)

LBBG 270900Z 25003KT 190V300 CAVOK 18/13 Q1016 NOSIG

LBBG Flight Activity (Flightaware)

Listeners: 0 out of 925 total

Burgas Approach: 125.100
Burgas Tower: 118.000

LBLS Tower/FIC
Lesnovo, Bulgaria

Feed Status: DOWN
Offline since: 2020-10-21 13:56:22 UTC

LBSF 270900Z VRB02KT 9000 4000E BR SCT002 09/08 Q1017 NOSIG

Lesnovo FIC: 130.600
Lesnovo Tower: 122.250

LBPD Tower (Archives)
Plovdiv, Bulgaria

Feed Status: UP
Listen in your browser - HTML5 player(in browser, HTML5)
Click here to listen with your own player(launches your MP3 player)

LBSF 270900Z VRB02KT 9000 4000E BR SCT002 09/08 Q1017 NOSIG

LBSF Flight Activity (Flightaware)

Listeners: 0 out of 925 total

Plovdiv Tower: 125.500
Plovdiv Tower: 133.600

LBSF ATIS (Archives)
Sofia, Bulgaria

Feed Status: UP
Listen in your browser - HTML5 player(in browser, HTML5)
Click here to listen with your own player(launches your MP3 player)

LBSF 270900Z VRB02KT 9000 4000E BR SCT002 09/08 Q1017 NOSIG

LBSF Flight Activity (Flightaware)

Listeners: 0 out of 925 total

Sofia ATIS: 126.680

LBSF Sofia Control East (Archives)
Sofia, Bulgaria

Feed Status: UP
Listen in your browser - HTML5 player(in browser, HTML5)
Click here to listen with your own player(launches your MP3 player)

LBSF 270900Z VRB02KT 9000 4000E BR SCT002 09/08 Q1017 NOSIG

LBSF Flight Activity (Flightaware)

Listeners: 2 out of 925 total

Sofia Control (East/Middle Sector): 129.100
Sofia Control (Varna Sector): 134.700

LBSF Twr/App #1 (Archives)
Sofia, Bulgaria

Feed Status: UP
Listen in your browser - HTML5 player(in browser, HTML5)
Click here to listen with your own player(launches your MP3 player)

LBSF 270900Z VRB02KT 9000 4000E BR SCT002 09/08 Q1017 NOSIG

LBSF Flight Activity (Flightaware)

Listeners: 5 out of 925 total

Sofia Approach: 123.700
Sofia Approach: 129.900
Sofia Tower: 118.100
Sofia Tower: 120.200

LBSF Twr/App #2 (Archives)
Sofia, Bulgaria

Feed Status: UP
Listen in your browser - HTML5 player(in browser, HTML5)
Click here to listen with your own player(launches your MP3 player)

LBSF 270900Z VRB02KT 9000 4000E BR SCT002 09/08 Q1017 NOSIG

LBSF Flight Activity (Flightaware)

Listeners: 0 out of 925 total

Sofia Approach: 123.700
Sofia Tower: 118.100

LBWN Tower/Approach (Archives)
Varna, Bulgaria

Feed Status: UP
Listen in your browser - HTML5 player(in browser, HTML5)
Click here to listen with your own player(launches your MP3 player)

LBWN 270900Z 15003KT 090V240 CAVOK 19/14 Q1016 NOSIG

LBWN Flight Activity (Flightaware)

Listeners: 0 out of 925 total

Varna Approach: 121.000
Varna Tower: 119.500

Bordeaux Control (Archives)
Bordeaux, France

Feed Status: UP
Listen in your browser - HTML5 player(in browser, HTML5)
Click here to listen with your own player(launches your MP3 player)

LFBD 270900Z AUTO 19006KT 160V220 5000 RA BR BKN007/// BKN036/// BKN043/// ///TCU 13/12 Q1014 TEMPO NSW BKN030

LFBD Flight Activity (Flightaware)

Listeners: 1 out of 925 total

Air to Air: 123.450
Bordeaux Control BN FL<300: 127.675
Bordeaux Control L3 FL>300: 134.250
Bordeaux Control R2 FL>300: 133.575
Emergency/Guard: 121.500

LFBD Aquitane Approach (Archives)
Bordeaux, France

Feed Status: UP
Listen in your browser - HTML5 player(in browser, HTML5)
Click here to listen with your own player(launches your MP3 player)

LFBD 270900Z AUTO 19006KT 160V220 5000 RA BR BKN007/// BKN036/// BKN043/// ///TCU 13/12 Q1014 TEMPO NSW BKN030

LFBD Flight Activity (Flightaware)

Listeners: 1 out of 925 total

Aquitane Approach: 129.875

LFBD Bordeaux Control Sector X1 (Archives)
Bordeaux, France

Feed Status: UP
Listen in your browser - HTML5 player(in browser, HTML5)
Click here to listen with your own player(launches your MP3 player)

LFBD 270900Z AUTO 19006KT 160V220 5000 RA BR BKN007/// BKN036/// BKN043/// ///TCU 13/12 Q1014 TEMPO NSW BKN030

LFBD Flight Activity (Flightaware)

Listeners: 0 out of 925 total

Bordeaux Control (Sector X1): 118.425

LFBD Ground (Archives)
Bordeaux, France

Feed Status: UP
Listen in your browser - HTML5 player(in browser, HTML5)
Click here to listen with your own player(launches your MP3 player)

LFBD 270900Z AUTO 19006KT 160V220 5000 RA BR BKN007/// BKN036/// BKN043/// ///TCU 13/12 Q1014 TEMPO NSW BKN030

LFBD Flight Activity (Flightaware)

Listeners: 0 out of 925 total

Merignac Ground: 121.900

LFBD Tower (Archives)
Bordeaux, France

Feed Status: UP
Listen in your browser - HTML5 player(in browser, HTML5)
Click here to listen with your own player(launches your MP3 player)

LFBD 270900Z AUTO 19006KT 160V220 5000 RA BR BKN007/// BKN036/// BKN043/// ///TCU 13/12 Q1014 TEMPO NSW BKN030

LFBD Flight Activity (Flightaware)

Listeners: 0 out of 925 total

Merignac Tower: 118.300

LFBU/LFBL Tower (Archives)
Limoges, France

Feed Status: UP
Listen in your browser - HTML5 player(in browser, HTML5)
Click here to listen with your own player(launches your MP3 player)

LFBU 270900Z AUTO 18008KT 9999 BKN006 BKN043 OVC054 10/10 Q1013 NOSIG

LFBU Flight Activity (Flightaware)

Listeners: 0 out of 925 total

LFBL Limoges Tower: 124.055
LFBU Angouleme Tower: 123.150
Medoc: 124.325

Bordeaux Control (Archives)
Angouleme, France

Feed Status: UP
Listen in your browser - HTML5 player(in browser, HTML5)
Click here to listen with your own player(launches your MP3 player)

LFBD 270900Z AUTO 19006KT 160V220 5000 RA BR BKN007/// BKN036/// BKN043/// ///TCU 13/12 Q1014 TEMPO NSW BKN030

LFBD Flight Activity (Flightaware)

Listeners: 1 out of 925 total

Air to Air: 123.450
Bordeaux Control BN FL<300: 127.675
Bordeaux Control L3 FL>300: 134.250
Bordeaux Control R2 FL>300: 133.575
Emergency/Guard: 121.500

LFBU/LFBL Tower (Archives)
Angouleme, France

Feed Status: UP
Listen in your browser - HTML5 player(in browser, HTML5)
Click here to listen with your own player(launches your MP3 player)

LFBU 270900Z AUTO 18008KT 9999 BKN006 BKN043 OVC054 10/10 Q1013 NOSIG

LFBU Flight Activity (Flightaware)

Listeners: 0 out of 925 total

LFBL Limoges Tower: 124.055
LFBU Angouleme Tower: 123.150
Medoc: 124.325

LFLL Tower (Archives)
Lyon, France

Feed Status: UP
Listen in your browser - HTML5 player(in browser, HTML5)
Click here to listen with your own player(launches your MP3 player)

LFLL 270900Z 15005KT CAVOK 11/07 Q1015 NOSIG

LFLL Flight Activity (Flightaware)

Listeners: 0 out of 925 total

Lyon Tower: 120.450

Lyon FIS (Archives)
Lyon, France

Feed Status: UP
Listen in your browser - HTML5 player(in browser, HTML5)
Click here to listen with your own player(launches your MP3 player)

LFLL 270900Z 15005KT CAVOK 11/07 Q1015 NOSIG

LFLL Flight Activity (Flightaware)

Listeners: 0 out of 925 total

Lyon FIS: 135.200

LFLP Twr/LFLB App
Annecy, France

Feed Status: DOWN
Offline since: 2020-10-24 12:13:39 UTC

LFLP 270900Z AUTO VRB03KT 9999 FEW042 10/06 Q1014 NOSIG

Annecy Tower: 118.200
Chambery Approach: 121.205
Chambery Info: 123.700

LFLY Tower (Archives)
Bron, France

Feed Status: UP
Listen in your browser - HTML5 player(in browser, HTML5)
Click here to listen with your own player(launches your MP3 player)

LFLY 270900Z AUTO 17004KT 140V200 CAVOK 11/07 Q1014 NOSIG

LFLY Flight Activity (Flightaware)

Listeners: 0 out of 925 total

Lyon-Bron Tower: 118.100

Lyon FIS (Archives)
Bron, France

Feed Status: UP
Listen in your browser - HTML5 player(in browser, HTML5)
Click here to listen with your own player(launches your MP3 player)

LFLL 270900Z 15005KT CAVOK 11/07 Q1015 NOSIG

LFLL Flight Activity (Flightaware)

Listeners: 0 out of 925 total

Lyon FIS: 135.200

LFMD Ground/Tower (Archives)
Cannes, France

Feed Status: UP
Listen in your browser - HTML5 player(in browser, HTML5)
Click here to listen with your own player(launches your MP3 player)

LFMD 270900Z AUTO VRB02KT CAVOK 15/06 Q1009 NOSIG

LFMD Flight Activity (Flightaware)

Listeners: 0 out of 925 total

Cannes Ground: 121.805
Cannes Tower: 118.625

LFMN Approach (Archives)
Nice, France

Feed Status: UP
Listen in your browser - HTML5 player(in browser, HTML5)
Click here to listen with your own player(launches your MP3 player)

LFMN 270900Z 33009KT 9999 FEW043 15/05 Q1009 NOSIG

LFMN Flight Activity (Flightaware)

Listeners: 1 out of 925 total

Nice Approach: 124.175

LFMN Control (High) (Archives)
Nice, France

Feed Status: UP
Listen in your browser - HTML5 player(in browser, HTML5)
Click here to listen with your own player(launches your MP3 player)

LFMN 270900Z 33009KT 9999 FEW043 15/05 Q1009 NOSIG

LFMN Flight Activity (Flightaware)

Listeners: 0 out of 925 total

Marseille Control Sector K1 (FL245-FL305): 126.780

LFMN FIS/Approach (Archives)
Nice, France

Feed Status: UP
Listen in your browser - HTML5 player(in browser, HTML5)
Click here to listen with your own player(launches your MP3 player)

LFMN 270900Z 33009KT 9999 FEW043 15/05 Q1009 NOSIG

LFMN Flight Activity (Flightaware)

Listeners: 0 out of 925 total

Nice FIS/Approach (TMA4 NICE 2500ft - FL115): 120.850

LFMN Ground/Tower (Archives)
Nice, France

Feed Status: UP
Listen in your browser - HTML5 player(in browser, HTML5)
Click here to listen with your own player(launches your MP3 player)

LFMN 270900Z 33009KT 9999 FEW043 15/05 Q1009 NOSIG

LFMN Flight Activity (Flightaware)

Listeners: 0 out of 925 total

Nice Ground: 121.700
Nice Tower: 118.700

LFPG Tower (Archives)
Paris, France

Feed Status: UP
Listen in your browser - HTML5 player(in browser, HTML5)
Click here to listen with your own player(launches your MP3 player)

LFPG 270900Z 20014KT 9999 BKN010 BKN200 09/07 Q1008 TEMPO BKN008

LFPG Flight Activity (Flightaware)

Listeners: 7 out of 925 total

De Gaulle Tower: 120.900
De Gaulle Tower: 119.250

LFPO Approach (Archives)
Paris, France

Feed Status: UP
Listen in your browser - HTML5 player(in browser, HTML5)
Click here to listen with your own player(launches your MP3 player)

LFPO 270900Z 20010KT 9999 BKN009 09/07 Q1008 NOSIG

LFPO Flight Activity (Flightaware)

Listeners: 6 out of 925 total

Orly Approach: 124.450
Orly Approach: 118.850
Orly Approach: 120.850
Orly Approach: 123.875

LFPO Departure (Archives)
Paris, France

Feed Status: UP
Listen in your browser - HTML5 player(in browser, HTML5)
Click here to listen with your own player(launches your MP3 player)

LFPO 270900Z 20010KT 9999 BKN009 09/07 Q1008 NOSIG

LFPO Flight Activity (Flightaware)

Listeners: 2 out of 925 total

Orly Departure: 127.750

LFPO Tower (Archives)
Paris, France

Feed Status: UP
Listen in your browser - HTML5 player(in browser, HTML5)
Click here to listen with your own player(launches your MP3 player)

LFPO 270900Z 20010KT 9999 BKN009 09/07 Q1008 NOSIG

LFPO Flight Activity (Flightaware)

Listeners: 7 out of 925 total

Orly Tower: 120.500
Orly Tower: 118.700

LFSB Tower (Archives)
Basel, Switzerland

Feed Status: UP
Listen in your browser - HTML5 player(in browser, HTML5)
Click here to listen with your own player(launches your MP3 player)

LFSB 270900Z 16004KT 9999 FEW026 BKN053 10/06 Q1013 NOSIG

LFSB Flight Activity (Flightaware)

Listeners: 2 out of 925 total

Mulhouse Tower: 118.300

LGAV App/Radar (Archives)
Athens, Greece

Feed Status: UP
Listen in your browser - HTML5 player(in browser, HTML5)
Click here to listen with your own player(launches your MP3 player)

LGAV 270920Z VRB01KT 9999 FEW025 23/10 Q1014 NOSIG

LGAV Flight Activity (Flightaware)

Listeners: 1 out of 925 total

Athens Approach: 132.975
Athens Information: 130.925
Athens Information: 119.750
Athens Radar (Kerkira-Kefalinia-Paleohora Sectors FL460-FL345): 134.325
Athens Radar (Milos/Sitia Sectors FL460-FL345): 125.200
Athens Radar (Paleohora /Kerkira Sectors FL460-FL345): 133.725
Athens Radar (Paleohora Sector FL460-FL345): 124.625
Athens Radar (Rhodos/Kavos Sector FL460-FL345): 133.325
Emergency/Guard: 121.500
Makedonia Radar (Thessaloniki/Skopelos/Limnos/Kavala Sectors FL460-FL345): 133.575

LHBP Approach (Archives)
Budapest, Hungary

Feed Status: UP
Listen in your browser - HTML5 player(in browser, HTML5)
Click here to listen with your own player(launches your MP3 player)

LHBP 270900Z 07006KT 9000 FEW005 13/11 Q1012 NOSIG

LHBP Flight Activity (Flightaware)

Listeners: 1 out of 925 total

Budapest Approach: 122.975
Budapest Approach (Upper): 123.860

LHBP Approach (Director) (Archives)
Budapest, Hungary

Feed Status: UP
Listen in your browser - HTML5 player(in browser, HTML5)
Click here to listen with your own player(launches your MP3 player)

LHBP 270900Z 07006KT 9000 FEW005 13/11 Q1012 NOSIG

LHBP Flight Activity (Flightaware)

Listeners: 0 out of 925 total

Budapest Director: 119.510

LHBP ATIS (Archives)
Budapest, Hungary

Feed Status: UP
Listen in your browser - HTML5 player(in browser, HTML5)
Click here to listen with your own player(launches your MP3 player)

LHBP 270900Z 07006KT 9000 FEW005 13/11 Q1012 NOSIG

LHBP Flight Activity (Flightaware)

Listeners: 1 out of 925 total

Budapest ATIS: 132.380

LHBP Clearance Delivery (Archives)
Budapest, Hungary

Feed Status: UP
Listen in your browser - HTML5 player(in browser, HTML5)
Click here to listen with your own player(launches your MP3 player)

LHBP 270900Z 07006KT 9000 FEW005 13/11 Q1012 NOSIG

LHBP Flight Activity (Flightaware)

Listeners: 0 out of 925 total

Budapest Clearance Delivery: 134.540

LHBP Ground (Archives)
Budapest, Hungary

Feed Status: UP
Listen in your browser - HTML5 player(in browser, HTML5)
Click here to listen with your own player(launches your MP3 player)

LHBP 270900Z 07006KT 9000 FEW005 13/11 Q1012 NOSIG

LHBP Flight Activity (Flightaware)

Listeners: 0 out of 925 total

Budapest Ground: 121.910

LHBP Info (Archives)
Budapest, Hungary

Feed Status: UP
Listen in your browser - HTML5 player(in browser, HTML5)
Click here to listen with your own player(launches your MP3 player)

LHBP 270900Z 07006KT 9000 FEW005 13/11 Q1012 NOSIG

LHBP Flight Activity (Flightaware)

Listeners: 1 out of 925 total

Budapest Info: 119.350

LHBP Tower (Archives)
Budapest, Hungary

Feed Status: UP
Listen in your browser - HTML5 player(in browser, HTML5)
Click here to listen with your own player(launches your MP3 player)

LHBP 270900Z 07006KT 9000 FEW005 13/11 Q1012 NOSIG

LHBP Flight Activity (Flightaware)

Listeners: 3 out of 925 total

Budapest Tower: 118.100

LHBP Twr/Info (Archives)
Budapest, Hungary

Feed Status: UP
Listen in your browser - HTML5 player(in browser, HTML5)
Click here to listen with your own player(launches your MP3 player)

LHBP 270900Z 07006KT 9000 FEW005 13/11 Q1012 NOSIG

LHBP Flight Activity (Flightaware)

Listeners: 0 out of 925 total

Budapest Info: 119.350
Budapest Tower: 118.100

LHCC Control (East/West) (Archives)
Budapest, Hungary

Feed Status: UP
Listen in your browser - HTML5 player(in browser, HTML5)
Click here to listen with your own player(launches your MP3 player)

LHBP 270900Z 07006KT 9000 FEW005 13/11 Q1012 NOSIG

LHBP Flight Activity (Flightaware)

Listeners: 0 out of 925 total

Budapest Control (East Low Sector): 120.375
Budapest Control (West Low Sector): 133.200

LHDC Info/Tower (Archives)
Debrecen, Hungary

Feed Status: UP
Listen in your browser - HTML5 player(in browser, HTML5)
Click here to listen with your own player(launches your MP3 player)

LHDC 270845Z AUTO 12005KT 080V150 CAVOK 16/10 Q1014 NOSIG

LHDC Flight Activity (Flightaware)

Listeners: 0 out of 925 total

Debrecen Info/Tower: 125.900

LHEM CTAF (Archives)
Esztergom, Hungary

Feed Status: UP
Listen in your browser - HTML5 player(in browser, HTML5)
Click here to listen with your own player(launches your MP3 player)

LHEM Flight Activity (Flightaware)

Listeners: 0 out of 925 total

Esztergom CTAF: 126.850

LHPR Info/AFIS (Archives)
Gyor, Hungary

Feed Status: UP
Listen in your browser - HTML5 player(in browser, HTML5)
Click here to listen with your own player(launches your MP3 player)

LHPR 270845Z AUTO 28003KT 230V340 CAVOK 15/11 Q1011 NOSIG

LHPR Flight Activity (Flightaware)

Listeners: 1 out of 925 total

Gyor AFIS: 129.910

LHUD CTAF/Info/AFIS
Szeged, Hungary

Feed Status: DOWN
Offline since: 2020-10-05 08:03:39 UTC

LHUD 032345Z 35004KT CAVOK 18/13 Q1019

Szeged CTAF/Info/AFIS: 122.810

LJLJ Info (Archives)
Ljubljana, Slovenia

Feed Status: UP
Listen in your browser - HTML5 player(in browser, HTML5)
Click here to listen with your own player(launches your MP3 player)

LJLJ 270900Z 11006KT 8000 -RA FEW010 BKN023 OVC057 12/12 Q1009 NOSIG

LJLJ Flight Activity (Flightaware)

Listeners: 0 out of 925 total

Ljubljana Info: 118.475

LJLJ Radar (Archives)
Ljubljana, Slovenia

Feed Status: UP
Listen in your browser - HTML5 player(in browser, HTML5)
Click here to listen with your own player(launches your MP3 player)

LJLJ 270900Z 11006KT 8000 -RA FEW010 BKN023 OVC057 12/12 Q1009 NOSIG

LJLJ Flight Activity (Flightaware)

Listeners: 0 out of 925 total

Ljubljana Approach: 135.275

LJLJ Tower (Archives)
Ljubljana, Slovenia

Feed Status: UP
Listen in your browser - HTML5 player(in browser, HTML5)
Click here to listen with your own player(launches your MP3 player)

LJLJ 270900Z 11006KT 8000 -RA FEW010 BKN023 OVC057 12/12 Q1009 NOSIG

LJLJ Flight Activity (Flightaware)

Listeners: 0 out of 925 total

Ljubljana Tower: 118.000

LJMS CTAF
Murska Sobota, Slovenia

Feed Status: DOWN
Offline since: 2020-10-24 21:33:40 UTC

Murska Sobota Aerodrome Radio: 123.500

LJPZ Tower
Secovlje, Slovenia

Feed Status: DOWN
Offline since: 2020-10-27 05:54:39 UTC

LJPZ 270900Z 21004KT 150V260 9999 -RA FEW025 SCT040 BKN080 17/10 Q1008

Portoroz Tower: 124.875

LKKV Tower (Archives)
Karlovy Vary, Czech Republic

Feed Status: UP
Listen in your browser - HTML5 player(in browser, HTML5)
Click here to listen with your own player(launches your MP3 player)

LKKV 270900Z 19004KT 150V230 9999 BKN014 07/04 Q1011

LKKV Flight Activity (Flightaware)

Listeners: 1 out of 925 total

Karlovy Vary Tower: 121.230

LKPM Tower (Archives)
Pribram, Czech Republic

Feed Status: UP
Listen in your browser - HTML5 player(in browser, HTML5)
Click here to listen with your own player(launches your MP3 player)

LKPM Flight Activity (Flightaware)

Listeners: 0 out of 925 total

Pribram Tower: 118.755

LKAA FIR (High) (Archives)
Prague, Czech Republic

Feed Status: UP
Listen in your browser - HTML5 player(in browser, HTML5)
Click here to listen with your own player(launches your MP3 player)

LKAA Flight Activity (Flightaware)

Listeners: 0 out of 925 total

LKAA FIR Sector West High / Praha Radar : 132.065

LKAA FIR (Low) (Archives)
Prague, Czech Republic

Feed Status: UP
Listen in your browser - HTML5 player(in browser, HTML5)
Click here to listen with your own player(launches your MP3 player)

LKAA Flight Activity (Flightaware)

Listeners: 0 out of 925 total

LKAA FIR Sector West Low / Praha Radar: 120.275

LKPR Approach (Archives)
Prague, Czech Republic

Feed Status: UP
Listen in your browser - HTML5 player(in browser, HTML5)
Click here to listen with your own player(launches your MP3 player)

LKPR 270900Z 23008KT 9999 SCT012 08/06 Q1011 NOSIG

LKPR Flight Activity (Flightaware)

Listeners: 2 out of 925 total

Prague Approach/Radar: 127.580

LKPR Clearance Del (Archives)
Prague, Czech Republic

Feed Status: UP
Listen in your browser - HTML5 player(in browser, HTML5)
Click here to listen with your own player(launches your MP3 player)

LKPR 270900Z 23008KT 9999 SCT012 08/06 Q1011 NOSIG

LKPR Flight Activity (Flightaware)

Listeners: 0 out of 925 total

Prague/Ruzyne Clearance Delivery: 120.060

LKPR Director/Ruzyne Radar (Archives)
Prague, Czech Republic

Feed Status: UP
Listen in your browser - HTML5 player(in browser, HTML5)
Click here to listen with your own player(launches your MP3 player)

LKPR 270900Z 23008KT 9999 SCT012 08/06 Q1011 NOSIG

LKPR Flight Activity (Flightaware)

Listeners: 1 out of 925 total

Prague Director/Ruzyne Radar: 119.010

LKPR Ground (Archives)
Prague, Czech Republic

Feed Status: UP
Listen in your browser - HTML5 player(in browser, HTML5)
Click here to listen with your own player(launches your MP3 player)

LKPR 270900Z 23008KT 9999 SCT012 08/06 Q1011 NOSIG

LKPR Flight Activity (Flightaware)

Listeners: 0 out of 925 total

Prague/Ruzyne Ground: 121.910

LKPR Tower (Archives)
Prague, Czech Republic

Feed Status: UP
Listen in your browser - HTML5 player(in browser, HTML5)
Click here to listen with your own player(launches your MP3 player)

LKPR 270900Z 23008KT 9999 SCT012 08/06 Q1011 NOSIG

LKPR Flight Activity (Flightaware)

Listeners: 4 out of 925 total

Prague/Ruzyne Tower: 134.560

LKTB Gnd/Twr/Radar (Archives)
Brno, Czech Republic

Feed Status: UP
Listen in your browser - HTML5 player(in browser, HTML5)
Click here to listen with your own player(launches your MP3 player)

LKTB 270900Z 29007KT 9999 OVC005 10/09 Q1011 NOSIG

LKTB Flight Activity (Flightaware)

Listeners: 1 out of 925 total

Brno Ground: 125.430
Brno Handling: 131.800
Brno Radar (Approach): 127.350
Brno Tower: 119.605

LMML GndTwr/App/Control (Archives)
Luqa, Malta

Feed Status: UP
Listen in your browser - HTML5 player(in browser, HTML5)
Click here to listen with your own player(launches your MP3 player)

LMML 270915Z 32017KT 9999 FEW017 BKN049 19/16 Q1014 NOSIG

LMML Flight Activity (Flightaware)

Listeners: 5 out of 925 total

Emergency/Guard: 121.500
Luqa Ground: 121.600
Luqa Radar: 128.150
Luqa Tower: 135.100
Malta Radar - East: 123.625
Malta Radar - East (Secondary): 127.525
Malta Radar - UHF: 284.500
Malta Radar - West: 130.975
Malta Radar - West (Secondary): 122.775

LPMA Approach (Archives)
Madeira, Portugal

Feed Status: UP
Listen in your browser - HTML5 player(in browser, HTML5)
Click here to listen with your own player(launches your MP3 player)

LPMA 270900Z 35008KT 9999 BKN016 20/12 Q1024

LPMA Flight Activity (Flightaware)

Listeners: 3 out of 925 total

Madeira Approach: 119.605

LPPR Approach #1 (Archives)
Porto, Portugal

Feed Status: UP
Listen in your browser - HTML5 player(in browser, HTML5)
Click here to listen with your own player(launches your MP3 player)

LPPR 270900Z 18014KT 8000 -DZ OVC022 14/13 Q1020

LPPR Flight Activity (Flightaware)

Listeners: 3 out of 925 total

Porto Approach: 121.105

LPPT Approach (Archives)
Lisbon, Portugal

Feed Status: UP
Listen in your browser - HTML5 player(in browser, HTML5)
Click here to listen with your own player(launches your MP3 player)

LPPT 270900Z 20007KT 9999 FEW030 BKN038 15/13 Q1023

LPPT Flight Activity (Flightaware)

Listeners: 7 out of 925 total

Lisbon Approach: 119.105

LRCL Twr/App #1 (Archives)
Cluj-Napoca, Romania

Feed Status: UP
Listen in your browser - HTML5 player(in browser, HTML5)
Click here to listen with your own player(launches your MP3 player)

LRCL 270900Z 09007KT 1800 BR FEW001 OVC002 09/09 Q1016 R07/19//95

LRCL Flight Activity (Flightaware)

Listeners: 1 out of 925 total

Cluj Approach: 126.425
Cluj Tower: 118.705

LRCL Twr/App/ACC (Archives)
Cluj-Napoca, Romania

Feed Status: UP
Listen in your browser - HTML5 player(in browser, HTML5)
Click here to listen with your own player(launches your MP3 player)

LRCL 270900Z 09007KT 1800 BR FEW001 OVC002 09/09 Q1016 R07/19//95

LRCL Flight Activity (Flightaware)

Listeners: 0 out of 925 total

Cluj Approach: 126.425
Cluj Tower: 118.705
Napoc ACC: 127.075

LROP Ground (Archives)
Bucharest, Romania

Feed Status: UP
Listen in your browser - HTML5 player(in browser, HTML5)
Click here to listen with your own player(launches your MP3 player)

LROP 270900Z VRB02KT 0400 R08R/0650N R26L/0600N FG OVC001 12/12 Q1016 R08R/19//95 BECMG 0600

LROP Flight Activity (Flightaware)

Listeners: 0 out of 925 total

Bucharest Ground: 121.855

LROP Radar (Archives)
Bucharest, Romania

Feed Status: UP
Listen in your browser - HTML5 player(in browser, HTML5)
Click here to listen with your own player(launches your MP3 player)

LROP 270900Z VRB02KT 0400 R08R/0650N R26L/0600N FG OVC001 12/12 Q1016 R08R/19//95 BECMG 0600

LROP Flight Activity (Flightaware)

Listeners: 1 out of 925 total

Bucharest Radar (Arges Mid sector): 121.175
Bucharest Radar (Arges Top Sector): 123.265
Bucharest Radar (Lomos Top Sector): 132.865

LROP Tower/Approach (Archives)
Bucharest, Romania

Feed Status: UP
Listen in your browser - HTML5 player(in browser, HTML5)
Click here to listen with your own player(launches your MP3 player)

LROP 270900Z VRB02KT 0400 R08R/0650N R26L/0600N FG OVC001 12/12 Q1016 R08R/19//95 BECMG 0600

LROP Flight Activity (Flightaware)

Listeners: 0 out of 925 total

Bucharest Approach: 119.415
Bucharest Director: 127.155
Bucharest Tower: 118.805

LROP Twr/App/Radar (Archives)
Bucharest, Romania

Feed Status: UP
Listen in your browser - HTML5 player(in browser, HTML5)
Click here to listen with your own player(launches your MP3 player)

LROP 270900Z VRB02KT 0400 R08R/0650N R26L/0600N FG OVC001 12/12 Q1016 R08R/19//95 BECMG 0600

LROP Flight Activity (Flightaware)

Listeners: 5 out of 925 total

Bucharest Approach: 119.415
Bucharest Director: 127.155
Bucharest Radar (Arges Mid sector): 121.175
Bucharest Radar (Arges Top Sector): 123.265
Bucharest Radar (Lomos Top Sector): 132.865
Bucharest Tower: 118.805

LRSB Tower/CTAF (Archives)
Sibiu, Romania

Feed Status: UP
Listen in your browser - HTML5 player(in browser, HTML5)
Click here to listen with your own player(launches your MP3 player)

LRSB 270900Z 13004KT 3000 BR SCT002 09/09 Q1016 R27/19//95

LRSB Flight Activity (Flightaware)

Listeners: 0 out of 925 total

Sibiu Tower: 121.305

LRTR Tower (Archives)
Timisoara, Romania

Feed Status: UP
Listen in your browser - HTML5 player(in browser, HTML5)
Click here to listen with your own player(launches your MP3 player)

LRTR 270900Z 10009KT CAVOK 16/13 Q1013

LRTR Flight Activity (Flightaware)

Listeners: 0 out of 925 total

ARAD Approach: 127.250
Timisoara Tower: 120.100

LSGS Gnd/Twr/App (Archives)
Sion, Switzerland

Feed Status: UP
Listen in your browser - HTML5 player(in browser, HTML5)
Click here to listen with your own player(launches your MP3 player)

LSGS 270920Z VRB02KT 9999 FEW020 SCT080 09/04 Q1014

LSGS Flight Activity (Flightaware)

Listeners: 3 out of 925 total

Alpine Jet Service Handling: 131.675
Sion Airport Handling: 131.475
Sion Approach (IFR ARR MIL OFF): 126.825
Sion Ground: 121.700
Sion Tower: 118.275

LSMD Tower (Archives)
Dubendorf, Switzerland

Feed Status: UP
Listen in your browser - HTML5 player(in browser, HTML5)
Click here to listen with your own player(launches your MP3 player)

LSZH 270920Z 23007KT 9999 FEW022 SCT065 09/05 Q1013 NOSIG

LSZH Flight Activity (Flightaware)

Listeners: 0 out of 925 total

Dubendorf Tower: 118.975

LSPM AFIS (Archives)
Ambri, Switzerland

Feed Status: UP
Listen in your browser - HTML5 player(in browser, HTML5)
Click here to listen with your own player(launches your MP3 player)

LSPM Flight Activity (Flightaware)

Listeners: 0 out of 925 total

Ambri AFIS: 118.525

LSZA Tower (Archives)
Agno, Switzerland

Feed Status: UP
Listen in your browser - HTML5 player(in browser, HTML5)
Click here to listen with your own player(launches your MP3 player)

LSZA 270920Z VRB03KT 9999 FEW120 12/06 Q1009 NOSIG

LSZA Flight Activity (Flightaware)

Listeners: 0 out of 925 total

Lugano Tower: 120.250

LSZB Twr/App/Dep (Archives)
Bern, Switzerland

Feed Status: UP
Listen in your browser - HTML5 player(in browser, HTML5)
Click here to listen with your own player(launches your MP3 player)

LSZB 270920Z VRB03KT 9999 SCT035 BKN043 08/06 Q1013 NOSIG

LSZB Flight Activity (Flightaware)

Listeners: 1 out of 925 total

LSZB Arrival/Departure: 127.325
LSZB Tower: 121.025

LSZG Tower (Archives)
Grenchen, Switzerland

Feed Status: UP
Listen in your browser - HTML5 player(in browser, HTML5)
Click here to listen with your own player(launches your MP3 player)

LSZG 270920Z 24006KT 9999 FEW008 BKN015 08/07 Q1013 NOSIG

LSZG Flight Activity (Flightaware)

Listeners: 1 out of 925 total

Grenchen Tower: 120.100

LSZH Approach (East) (Archives)
Zurich, Switzerland

Feed Status: UP
Listen in your browser - HTML5 player(in browser, HTML5)
Click here to listen with your own player(launches your MP3 player)

LSZH 270920Z 23007KT 9999 FEW022 SCT065 09/05 Q1013 NOSIG

LSZH Flight Activity (Flightaware)

Listeners: 3 out of 925 total

Zurich Approach (East): 135.225

LSZH Approach (West) (Archives)
Zurich, Switzerland

Feed Status: UP
Listen in your browser - HTML5 player(in browser, HTML5)
Click here to listen with your own player(launches your MP3 player)

LSZH 270920Z 23007KT 9999 FEW022 SCT065 09/05 Q1013 NOSIG

LSZH Flight Activity (Flightaware)

Listeners: 1 out of 925 total

Zurich Approach (West): 118.000

LSZH Apron (South) (Archives)
Zurich, Switzerland

Feed Status: UP
Listen in your browser - HTML5 player(in browser, HTML5)
Click here to listen with your own player(launches your MP3 player)

LSZH 270920Z 23007KT 9999 FEW022 SCT065 09/05 Q1013 NOSIG

LSZH Flight Activity (Flightaware)

Listeners: 3 out of 925 total

Zurich Apron (South): 121.755

LSZH Apron (West) (Archives)
Zurich, Switzerland

Feed Status: UP
Listen in your browser - HTML5 player(in browser, HTML5)
Click here to listen with your own player(launches your MP3 player)

LSZH 270920Z 23007KT 9999 FEW022 SCT065 09/05 Q1013 NOSIG

LSZH Flight Activity (Flightaware)

Listeners: 2 out of 925 total

Zurich Apron (West): 121.855

LSZH Clearance Delivery (Archives)
Zurich, Switzerland

Feed Status: UP
Listen in your browser - HTML5 player(in browser, HTML5)
Click here to listen with your own player(launches your MP3 player)

LSZH 270920Z 23007KT 9999 FEW022 SCT065 09/05 Q1013 NOSIG

LSZH Flight Activity (Flightaware)

Listeners: 3 out of 925 total

Zurich Clearance Delivery: 121.925

LSZH Ground (Archives)
Zurich, Switzerland

Feed Status: UP
Listen in your browser - HTML5 player(in browser, HTML5)
Click here to listen with your own player(launches your MP3 player)

LSZH 270920Z 23007KT 9999 FEW022 SCT065 09/05 Q1013 NOSIG

LSZH Flight Activity (Flightaware)

Listeners: 1 out of 925 total

Zurich Ground: 121.905

LSZH Radar (Archives)
Zurich, Switzerland

Feed Status: UP
Listen in your browser - HTML5 player(in browser, HTML5)
Click here to listen with your own player(launches your MP3 player)

LSZH 270920Z 23007KT 9999 FEW022 SCT065 09/05 Q1013 NOSIG

LSZH Flight Activity (Flightaware)

Listeners: 1 out of 925 total

Zurich Radar ACC (-FL240 East): 133.900
Zurich Radar ACC (-FL240 North): 136.150
Zurich Radar ACC (-FL240 South): 128.050
Zurich Radar ACC (-FL240 West): 135.675
Zurich Radar ACC (FL250-280): 133.050
Zurich Radar ACC (FL290-320): 132.815
Zurich Radar ACC (FL330-350): 134.600
Zurich Radar ACC (FL360+): 133.400

LSZH Radar 132.815 (Archives)
Zurich, Switzerland

Feed Status: UP
Listen in your browser - HTML5 player(in browser, HTML5)
Click here to listen with your own player(launches your MP3 player)

LSZH 270920Z 23007KT 9999 FEW022 SCT065 09/05 Q1013 NOSIG

LSZH Flight Activity (Flightaware)

Listeners: 0 out of 925 total

Zurich Radar: 132.815

LSZH Radar 133.050 (Archives)
Zurich, Switzerland

Feed Status: UP
Listen in your browser - HTML5 player(in browser, HTML5)
Click here to listen with your own player(launches your MP3 player)

LSZH 270920Z 23007KT 9999 FEW022 SCT065 09/05 Q1013 NOSIG

LSZH Flight Activity (Flightaware)

Listeners: 0 out of 925 total

Zurich Radar: 133.050

LSZH Radar 133.405 (Archives)
Zurich, Switzerland

Feed Status: UP
Listen in your browser - HTML5 player(in browser, HTML5)
Click here to listen with your own player(launches your MP3 player)

LSZH 270920Z 23007KT 9999 FEW022 SCT065 09/05 Q1013 NOSIG

LSZH Flight Activity (Flightaware)

Listeners: 0 out of 925 total

Zurich Radar: 133.405

LSZH Radar 133.690 (Archives)
Zurich, Switzerland

Feed Status: UP
Listen in your browser - HTML5 player(in browser, HTML5)
Click here to listen with your own player(launches your MP3 player)

LSZH 270920Z 23007KT 9999 FEW022 SCT065 09/05 Q1013 NOSIG

LSZH Flight Activity (Flightaware)

Listeners: 0 out of 925 total

Zurich Radar: 133.690

LSZH Radar 133.905 (Archives)
Zurich, Switzerland

Feed Status: UP
Listen in your browser - HTML5 player(in browser, HTML5)
Click here to listen with your own player(launches your MP3 player)

LSZH 270920Z 23007KT 9999 FEW022 SCT065 09/05 Q1013 NOSIG

LSZH Flight Activity (Flightaware)

Listeners: 0 out of 925 total

Zurich Radar (Below FL240 East): 133.905

LSZH Radar 134.605 (Archives)
Zurich, Switzerland

Feed Status: UP
Listen in your browser - HTML5 player(in browser, HTML5)
Click here to listen with your own player(launches your MP3 player)

LSZH 270920Z 23007KT 9999 FEW022 SCT065 09/05 Q1013 NOSIG

LSZH Flight Activity (Flightaware)

Listeners: 0 out of 925 total

Zurich Radar (FL330-350): 134.605

LSZH Radar 135.680 (Archives)
Zurich, Switzerland

Feed Status: UP
Listen in your browser - HTML5 player(in browser, HTML5)
Click here to listen with your own player(launches your MP3 player)

LSZH 270920Z 23007KT 9999 FEW022 SCT065 09/05 Q1013 NOSIG

LSZH Flight Activity (Flightaware)

Listeners: 0 out of 925 total


LSZH Radar 136.155 (Archives)
Zurich, Switzerland

Feed Status: UP
Listen in your browser - HTML5 player(in browser, HTML5)
Click here to listen with your own player(launches your MP3 player)

LSZH 270920Z 23007KT 9999 FEW022 SCT065 09/05 Q1013 NOSIG

LSZH Flight Activity (Flightaware)

Listeners: 0 out of 925 total

Zurich Radar (Below FL240 North): 136.155

LSZH Tower (Archives)
Zurich, Switzerland

Feed Status: UP
Listen in your browser - HTML5 player(in browser, HTML5)
Click here to listen with your own player(launches your MP3 player)

LSZH 270920Z 23007KT 9999 FEW022 SCT065 09/05 Q1013 NOSIG

LSZH Flight Activity (Flightaware)

Listeners: 10 out of 925 total

Zurich Tower: 118.100

LSZH Tower (14/32) (Archives)
Zurich, Switzerland

Feed Status: UP
Listen in your browser - HTML5 player(in browser, HTML5)
Click here to listen with your own player(launches your MP3 player)

LSZH 270920Z 23007KT 9999 FEW022 SCT065 09/05 Q1013 NOSIG

LSZH Flight Activity (Flightaware)

Listeners: 1 out of 925 total

Zurich Tower (Rwy 14 App/32 Takeoff): 120.225

LSZH Twr/Gnd (backup) (Archives)
Zurich, Switzerland

Feed Status: UP
Listen in your browser - HTML5 player(in browser, HTML5)
Click here to listen with your own player(launches your MP3 player)

LSZH 270920Z 23007KT 9999 FEW022 SCT065 09/05 Q1013 NOSIG

LSZH Flight Activity (Flightaware)

Listeners: 0 out of 925 total

Zurich Twr/Gnd (backup): 119.700

LSZL Tower (Archives)
Locarno, Switzerland

Feed Status: UP
Listen in your browser - HTML5 player(in browser, HTML5)
Click here to listen with your own player(launches your MP3 player)

LSZL 270850Z 07006KT 030V110 9999 FEW090 13/05 Q1008 RMK BLU+

LSZL Flight Activity (Flightaware)

Listeners: 1 out of 925 total


LSZN CTAF (Archives)
Zurich, Switzerland

Feed Status: UP
Listen in your browser - HTML5 player(in browser, HTML5)
Click here to listen with your own player(launches your MP3 player)

LSZN Flight Activity (Flightaware)

Listeners: 0 out of 925 total

Hausen am Albis CTAF: 130.755

LSZR Tower (Archives)
Altenrhein, Switzerland

Feed Status: UP
Listen in your browser - HTML5 player(in browser, HTML5)
Click here to listen with your own player(launches your MP3 player)

LSZR 270920Z 07002KT 9999 BKN032 08/06 Q1013 NOSIG RMK E

LSZR Flight Activity (Flightaware)

Listeners: 1 out of 925 total

Altenrhein Tower: 135.425

LSZW CTAF (Archives)
Thun, Switzerland

Feed Status: UP
Listen in your browser - HTML5 player(in browser, HTML5)
Click here to listen with your own player(launches your MP3 player)

LSZW Flight Activity (Flightaware)

Listeners: 0 out of 925 total

Thun CTAF/Info: 123.250

LTBA Gnd/Twr/App (Archives)
Istanbul, Turkey

Feed Status: UP
Listen in your browser - HTML5 player(in browser, HTML5)
Click here to listen with your own player(launches your MP3 player)

LTBA 270920Z 08004KT 7000 NSC 21/15 Q1015 NOSIG

LTBA Flight Activity (Flightaware)

Listeners: 2 out of 925 total

Istanbul Approach: 126.425
Istanbul Ground: 121.800
Istanbul Tower: 118.100

LTFJ Del/Gnd/Twr
Istanbul, Turkey

Feed Status: DOWN
Offline since: 2020-10-12 11:23:40 UTC

LTFJ 270920Z 04005KT 010V080 7000 SCT015 22/17 Q1014 NOSIG

Gokcen Clearance Delivery: 122.625
Gokcen Ground: 121.750
Gokcen Tower: 118.800

LTFJ Pegasus Dispatch
Istanbul, Turkey

Feed Status: DOWN
Offline since: 2020-09-30 14:07:39 UTC

LTFJ 270920Z 04005KT 010V080 7000 SCT015 22/17 Q1014 NOSIG

Pegasus Dispatch: 131.750

LUKK ACC #1 (Archives)
Chisinau, Moldova

Feed Status: UP
Listen in your browser - HTML5 player(in browser, HTML5)
Click here to listen with your own player(launches your MP3 player)

LUKK 270930Z 09004KT 2100 1300SW BR OVC003 15/15 Q1016 R08/290152 BECMG 4000 BR BKN005

LUKK Flight Activity (Flightaware)

Listeners: 0 out of 925 total

Chisinau ACC: 130.975

LUKK ACC #2 (Archives)
Chisinau, Moldova

Feed Status: UP
Listen in your browser - HTML5 player(in browser, HTML5)
Click here to listen with your own player(launches your MP3 player)

LUKK 270930Z 09004KT 2100 1300SW BR OVC003 15/15 Q1016 R08/290152 BECMG 4000 BR BKN005

LUKK Flight Activity (Flightaware)

Listeners: 0 out of 925 total

Chisinau ACC: 128.975

LUKK Air to Air (Archives)
Chisinau, Moldova

Feed Status: UP
Listen in your browser - HTML5 player(in browser, HTML5)
Click here to listen with your own player(launches your MP3 player)

LUKK 270930Z 09004KT 2100 1300SW BR OVC003 15/15 Q1016 R08/290152 BECMG 4000 BR BKN005

LUKK Flight Activity (Flightaware)

Listeners: 0 out of 925 total

Chisinau Air to Air: 123.450

LUKK Alternate (Archives)
Chisinau, Moldova

Feed Status: UP
Listen in your browser - HTML5 player(in browser, HTML5)
Click here to listen with your own player(launches your MP3 player)

LUKK 270930Z 09004KT 2100 1300SW BR OVC003 15/15 Q1016 R08/290152 BECMG 4000 BR BKN005

LUKK Flight Activity (Flightaware)

Listeners: 0 out of 925 total

Chisinau Alternate: 129.725

LUKK Approach #1 (Archives)
Chisinau, Moldova

Feed Status: UP
Listen in your browser - HTML5 player(in browser, HTML5)
Click here to listen with your own player(launches your MP3 player)

LUKK 270930Z 09004KT 2100 1300SW BR OVC003 15/15 Q1016 R08/290152 BECMG 4000 BR BKN005

LUKK Flight Activity (Flightaware)

Listeners: 1 out of 925 total

Chisinau Approach: 133.300

LUKK Approach #2 (Archives)
Chisinau, Moldova

Feed Status: UP
Listen in your browser - HTML5 player(in browser, HTML5)
Click here to listen with your own player(launches your MP3 player)

LUKK 270930Z 09004KT 2100 1300SW BR OVC003 15/15 Q1016 R08/290152 BECMG 4000 BR BKN005

LUKK Flight Activity (Flightaware)

Listeners: 0 out of 925 total

Chisinau Approach: 133.300

LUKK Emergency/Guard (Archives)
Chisinau, Moldova

Feed Status: UP
Listen in your browser - HTML5 player(in browser, HTML5)
Click here to listen with your own player(launches your MP3 player)

LUKK 270930Z 09004KT 2100 1300SW BR OVC003 15/15 Q1016 R08/290152 BECMG 4000 BR BKN005

LUKK Flight Activity (Flightaware)

Listeners: 0 out of 925 total

Emergency/Guard: 121.500

LUKK Ground #2 (Archives)
Chisinau, Moldova

Feed Status: UP
Listen in your browser - HTML5 player(in browser, HTML5)
Click here to listen with your own player(launches your MP3 player)

LUKK 270930Z 09004KT 2100 1300SW BR OVC003 15/15 Q1016 R08/290152 BECMG 4000 BR BKN005

LUKK Flight Activity (Flightaware)

Listeners: 0 out of 925 total

Chisinau Ground: 121.800

LUKK Handling (Archives)
Chisinau, Moldova

Feed Status: UP
Listen in your browser - HTML5 player(in browser, HTML5)
Click here to listen with your own player(launches your MP3 player)

LUKK 270930Z 09004KT 2100 1300SW BR OVC003 15/15 Q1016 R08/290152 BECMG 4000 BR BKN005

LUKK Flight Activity (Flightaware)

Listeners: 0 out of 925 total

Chisinau Handling: 131.700

LUKK Tower #2 (Archives)
Chisinau, Moldova

Feed Status: UP
Listen in your browser - HTML5 player(in browser, HTML5)
Click here to listen with your own player(launches your MP3 player)

LUKK 270930Z 09004KT 2100 1300SW BR OVC003 15/15 Q1016 R08/290152 BECMG 4000 BR BKN005

LUKK Flight Activity (Flightaware)

Listeners: 0 out of 925 total

Chisinau Tower: 118.100

LWSK ACC (Lower) (Archives)
Petrovec, Macedonia, Republic of

Feed Status: UP
Listen in your browser - HTML5 player(in browser, HTML5)
Click here to listen with your own player(launches your MP3 player)

LWSK 270900Z 20001KT 1100 R34/1200V1400D BR OVC003 08/08 Q1017 NOSIG

LWSK Flight Activity (Flightaware)

Listeners: 0 out of 925 total

Skopje Control (Lower): 119.375

LWSK ACC (Upper) (Archives)
Petrovec, Macedonia, Republic of

Feed Status: UP
Listen in your browser - HTML5 player(in browser, HTML5)
Click here to listen with your own player(launches your MP3 player)

LWSK 270900Z 20001KT 1100 R34/1200V1400D BR OVC003 08/08 Q1017 NOSIG

LWSK Flight Activity (Flightaware)

Listeners: 0 out of 925 total

Skopje Control (Upper): 120.015

LWSK Approach (Archives)
Petrovec, Macedonia, Republic of

Feed Status: UP
Listen in your browser - HTML5 player(in browser, HTML5)
Click here to listen with your own player(launches your MP3 player)

LWSK 270900Z 20001KT 1100 R34/1200V1400D BR OVC003 08/08 Q1017 NOSIG

LWSK Flight Activity (Flightaware)

Listeners: 0 out of 925 total

Skopje Approach/Departure: 120.300

LWSK ATIS (Archives)
Petrovec, Macedonia, Republic of

Feed Status: UP
Listen in your browser - HTML5 player(in browser, HTML5)
Click here to listen with your own player(launches your MP3 player)

LWSK 270900Z 20001KT 1100 R34/1200V1400D BR OVC003 08/08 Q1017 NOSIG

LWSK Flight Activity (Flightaware)

Listeners: 0 out of 925 total

Skopje ATIS: 130.125

LWSK Tower (Archives)
Petrovec, Macedonia, Republic of

Feed Status: UP
Listen in your browser - HTML5 player(in browser, HTML5)
Click here to listen with your own player(launches your MP3 player)

LWSK 270900Z 20001KT 1100 R34/1200V1400D BR OVC003 08/08 Q1017 NOSIG

LWSK Flight Activity (Flightaware)

Listeners: 0 out of 925 total

Skopje Tower: 118.500

LYNI Twr/App (Archives)
Nis, Serbia

Feed Status: UP
Listen in your browser - HTML5 player(in browser, HTML5)
Click here to listen with your own player(launches your MP3 player)

LYNI 270900Z 11006KT 080V150 CAVOK 16/08 Q1015 NOSIG

LYNI Flight Activity (Flightaware)

Listeners: 0 out of 925 total

Nis Approach: 119.525
Nis Approach/Tower (Alternate): 136.075
Nis Tower: 118.950

LZKZ Gnd/Twr/App (Archives)
Kosice, Slovakia

Feed Status: UP
Listen in your browser - HTML5 player(in browser, HTML5)
Click here to listen with your own player(launches your MP3 player)

LZKZ 270900Z VRB02KT 9999 FEW020 BKN080 15/11 Q1014 NOSIG

LZKZ Flight Activity (Flightaware)

Listeners: 1 out of 925 total

Kosice Approach: 129.350
Kosice Approach (backup): 119.850
Kosice Ground: 121.700
Kosice Handling: 131.850
Kosice Tower: 120.400

LZNI CTAF (Archives)
Nitra, Slovakia

Feed Status: UP
Listen in your browser - HTML5 player(in browser, HTML5)
Click here to listen with your own player(launches your MP3 player)

LZNI Flight Activity (Flightaware)

Listeners: 0 out of 925 total

Nitra Traffic Radio: 123.405

LZPE CTAF/UNICOM (Archives)
Prievidza, Slovakia

Feed Status: UP
Listen in your browser - HTML5 player(in browser, HTML5)
Click here to listen with your own player(launches your MP3 player)

LZPE Flight Activity (Flightaware)

Listeners: 2 out of 925 total

Prievidza CTAF/UNICOM: 123.055

LZPP Ground/Tower (Archives)
Piestany, Slovakia

Feed Status: UP
Listen in your browser - HTML5 player(in browser, HTML5)
Click here to listen with your own player(launches your MP3 player)

LZPP 270900Z 25007KT CAVOK 14/11 Q1011

LZPP Flight Activity (Flightaware)

Listeners: 1 out of 925 total

Piestany Ground: 121.700
Piestany Tower: 118.575

LZPT CTAF (Archives)
Partizanske, Slovakia

Feed Status: UP
Listen in your browser - HTML5 player(in browser, HTML5)
Click here to listen with your own player(launches your MP3 player)

LZPT Flight Activity (Flightaware)

Listeners: 0 out of 925 total

Male Bielice CTAF: 123.500

UKKK Gnd/Twr/ACC
Kyiv, Ukraine

Feed Status: DOWN
Offline since: 2020-02-16 19:49:23 UTC

UKKK 270900Z 13002MPS 100V200 CAVOK 12/08 Q1019 R08/CLRD70 NOSIG

Emergency/Guard: 121.500
Kyiv Radar ACC: 122.775
Kyiv Radar ACC: 124.675
Kyiv Radar ACC: 127.725
Kyiv Radar ACC: 128.175
Kyiv Radar ACC: 125.300
Kyiv Zhuliany Ground: 119.000
Kyiv Zhuliany Tower: 120.700

URKK Gnd/Twr/App (Archives)
Krasnodar, Russia

Feed Status: UP
Listen in your browser - HTML5 player(in browser, HTML5)
Click here to listen with your own player(launches your MP3 player)

URKK 270900Z 07004MPS 030V100 CAVOK 18/11 Q1018 R05R/CLRD70 NOSIG RMK QFE760

URKK Flight Activity (Flightaware)

Listeners: 3 out of 925 total

Krasnodar Approach: 129.600
Krasnodar Ground: 119.000
Krasnodar Radar: 121.300
Krasnodar Tower: 118.200

URMT Twr/App/Control (Archives)
Stavropol, Russia

Feed Status: UP
Listen in your browser - HTML5 player(in browser, HTML5)
Click here to listen with your own player(launches your MP3 player)

URMT 270900Z 13011G16MPS 9999 SCT022 15/08 Q1021 R07/010070 NOSIG RMK QFE725

URMT Flight Activity (Flightaware)

Listeners: 0 out of 925 total

Stavropol Approach: 120.300
Stavropol Control: 118.250
Stavropol Tower: 120.900

URSS Gnd/Twr/App (Archives)
Sochi, Russia

Feed Status: UP
Listen in your browser - HTML5 player(in browser, HTML5)
Click here to listen with your own player(launches your MP3 player)

URSS 270900Z 25002MPS 230V300 9999 NSC 24/08 Q1016 R02/010070 R06/010070 NOSIG RMK R06/28002MPS QFE761

URSS Flight Activity (Flightaware)

Listeners: 0 out of 925 total

Sochi Approach: 118.300
Sochi Approach: 119.700
Sochi District (Small Aircraft): 118.500
Sochi Start: 121.200
Sochi Taxi: 119.000
Sochi Tower: 124.600

USDD Gnd/Twr/App/Control (Archives)
Salekhard, Russia

Feed Status: UP
Listen in your browser - HTML5 player(in browser, HTML5)
Click here to listen with your own player(launches your MP3 player)

USDD 150530Z 05007MPS 9999 -SHRA BKN009CB 09/07 Q1002 R04/290060 NOSIG RMK QFE746/0994

USDD Flight Activity (Flightaware)

Listeners: 0 out of 925 total

Salekhard Control: 132.300
Salekhard Ground: 118.800
Salekhard Info: 125.200
Salekhard Krug: 120.800
Salekhard Tower: 118.600
Salekhard Transit: 131.700

UUDD Twr/App
Moscow, Russia

Feed Status: DOWN
Offline since: 2020-07-26 02:31:06 UTC

UUDD 270900Z 19005G10MPS 160V230 CAVOK 10/04 Q1027 R88/CLRD60 NOSIG

Domodedovo Tower: 118.600
Moscow Approach: 125.300
Moscow Approach: 127.700

UUEE Twr/App/Radar (Archives)
Moscow, Russia

Feed Status: UP
Listen in your browser - HTML5 player(in browser, HTML5)
Click here to listen with your own player(launches your MP3 player)

UUEE 270900Z 17005MPS CAVOK 10/04 Q1025 R24L/CLRD62 R24R/CLRD62 NOSIG

UUEE Flight Activity (Flightaware)

Listeners: 1 out of 925 total

Sheremetyevo Radar: 118.100
Sheremetyevo Radar/Departure: 126.600
Sheremetyevo Tower: 131.500
Sheremetyevo Tower (Rwy 24R/06L): 118.700